GFSNE_925_rhum_027.txt.gz
RH
41 35 43 31 29 34 45 30 32 38 37 42 42 36 38 39 38 48 58 56 72 75 75 76 78 78 79 78 76 75 74 72 71 70 67 68 76 77
39 32 35 44 60 58 38 34 31 30 40 40 38 36 37 41 42 59 64 60 67 71 76 79 80 81 80 79 78 76 74 74 72 70 70 72 75 77
36 42 66 67 49 50 53 60 57 50 49 49 43 42 42 42 50 56 58 65 71 62 75 80 85 84 82 81 79 78 76 74 73 72 72 74 73 76
63 68 67 74 76 68 61 62 54 58 56 54 57 50 49 53 60 63 68 67 74 68 74 86 85 84 84 84 82 81 79 76 74 73 72 71 68 68
72 88 88 82 76 68 61 61 66 86 60 67 56 65 70 63 71 75 78 81 80 71 77 79 83 87 89 85 84 82 82 81 81 82 79 77 74 72
83 71 69 74 85 86 92 97 96 63 61 85 82 77 78 74 81 83 79 74 71 72 77 79 83 82 80 80 83 85 87 88 87 85 83 80 79 79
89 96 96 89 92 99 93 89 92 93 89 94 81 77 77 75 75 75 79 74 75 82 80 75 79 78 74 75 73 66 62 86 90 87 83 82 80 81
94 93 100 98 65 64 95 98 99 94 81 87 88 75 76 80 81 82 80 83 80 72 77 73 76 73 72 73 64 69 85 86 86 87 85 83 81 78
94 80 55 61 56 53 55 72 74 72 75 78 82 78 83 82 86 94 92 94 86 79 78 78 73 72 72 69 75 80 85 86 88 88 86 85 82 77
60 55 63 77 73 78 85 82 76 76 78 83 90 87 87 90 92 99 95 84 77 75 76 79 68 66 68 70 75 81 79 82 84 83 83 82 81 79
78 76 79 76 58 79 76 75 86 90 79 75 83 88 90 86 82 77 84 84 82 71 73 77 73 70 70 70 70 70 79 79 79 78 80 82 84 84
76 74 65 77 78 80 86 97 89 81 76 82 83 77 66 56 64 84 89 96 93 84 75 82 76 77 77 63 63 67 74 76 80 84 87 86 86 87
75 72 72 90 88 87 83 82 77 73 82 81 73 67 73 79 83 88 94 100 100 96 85 94 90 90 90 86 76 71 72 74 76 78 81 85 89 92
81 80 85 94 88 84 79 76 77 81 70 67 73 76 82 91 89 89 85 90 96 94 77 100 98 98 95 90 82 73 72 77 83 87 92 94 96 95
84 94 90 85 78 58 68 78 79 64 76 81 83 90 94 86 80 82 81 84 89 84 79 83 96 100 100 95 91 90 89 83 88 93 95 96 96 96
82 83 77 64 56 71 60 60 67 79 87 87 89 93 96 99 100 100 100 100 100 94 87 85 87 94 100 100 99 93 91 95 86 91 94 94 96 98
86 67 59 65 70 72 75 79 85 90 96 98 100 99 95 96 98 98 100 100 100 95 92 90 95 100 100 100 98 95 93 90 90 92 95 95 92 92
61 66 74 80 84 88 91 93 92 94 97 98 100 100 100 100 100 100 100 100 100 96 96 94 97 99 89 80 86 99 93 89 89 94 98 98 92 86
64 75 83 90 95 97 98 100 100 93 93 95 98 97 100 100 100 100 100 100 98 95 95 96 100 97 94 89 70 73 90 95 94 94 92 90 92 90
68 77 88 91 94 97 96 97 97 95 96 95 95 98 100 100 100 100 100 100 98 95 93 92 94 96 95 92 93 87 88 94 99 95 92 89 90 90
70 77 82 85 87 87 86 89 96 96 99 100 98 98 98 100 100 100 100 100 97 94 93 90 90 94 97 99 94 81 75 78 96 99 98 97 90 88
72 74 75 78 79 79 78 80 93 95 97 97 98 99 98 100 100 100 100 100 96 94 96 95 96 97 98 97 92 87 85 81 84 88 93 98 98 93
71 70 70 70 70 71 70 76 94 95 96 97 98 97 98 100 100 100 100 100 99 98 96 93 94 96 94 94 89 90 88 90 88 90 87 84 86 85

GFSNE_925_rhum_030.txt.gz
RH
70 53 45 36 31 31 31 32 44 60 49 38 40 46 46 47 50 48 44 54 70 72 75 76 77 78 79 79 79 77 76 75 74 73 71 70 70 70
71 62 59 43 40 39 45 42 34 36 42 40 44 50 43 43 48 50 52 63 69 71 77 80 79 80 81 80 78 77 76 76 75 73 71 70 75 77
70 74 77 65 59 62 56 54 61 64 73 64 55 55 52 48 41 55 59 56 56 61 69 76 78 82 83 81 80 79 79 77 76 74 70 70 70 72
99 94 90 82 75 75 82 85 90 93 94 69 87 91 94 58 88 91 80 70 66 64 71 79 81 81 83 85 85 83 81 79 78 76 75 73 71 71
79 79 89 91 92 93 91 90 80 84 96 98 98 89 94 88 90 94 85 68 65 67 65 60 69 76 82 85 85 83 82 83 81 80 80 79 77 76
88 91 92 91 87 84 81 91 99 99 98 97 80 81 90 95 87 71 64 61 60 60 61 68 74 78 82 83 83 85 86 87 87 87 84 83 81 78
85 81 80 85 96 99 100 99 95 95 87 90 86 84 72 62 57 59 62 60 59 62 61 62 59 60 62 65 66 70 74 79 84 87 86 84 79 78
98 100 100 99 99 98 98 98 99 99 95 85 77 69 64 64 58 62 65 69 68 66 62 62 62 60 60 59 60 67 75 81 84 85 86 84 81 79
99 98 96 91 71 63 56 72 89 86 83 81 76 64 61 64 80 85 77 79 76 68 66 64 62 62 59 58 61 67 74 80 85 87 88 86 82 80
94 69 72 73 74 86 84 91 89 82 77 74 73 71 71 72 75 80 80 74 64 62 61 65 60 59 58 59 62 66 70 76 81 84 85 84 83 78
67 73 80 74 74 82 74 85 76 75 77 79 80 83 87 85 82 75 72 71 75 65 63 65 63 61 62 63 65 64 68 74 80 83 82 83 84 82
77 76 70 74 79 81 78 83 75 71 66 74 66 65 64 59 67 76 76 82 84 84 63 72 71 73 77 63 60 62 68 67 70 74 78 82 85 86
61 61 68 82 88 87 85 75 71 69 65 71 59 50 54 62 66 71 78 90 96 95 83 88 87 86 88 86 75 70 70 69 68 71 72 77 82 85
69 70 78 93 89 85 79 72 77 79 64 52 53 58 64 79 88 93 97 99 100 100 90 100 97 97 96 91 83 72 69 74 80 86 88 89 91 91
77 88 87 81 73 60 68 76 78 60 56 61 65 74 82 90 100 100 100 100 100 100 99 97 100 100 100 97 92 90 88 80 85 92 95 93 92 92
87 79 70 57 52 57 58 60 62 63 68 73 74 76 79 85 87 90 96 95 96 93 88 88 96 100 100 99 99 94 91 92 86 89 92 94 94 93
79 59 50 53 57 59 64 69 73 75 81 86 88 88 85 84 87 91 96 99 98 96 90 88 89 95 97 99 97 93 90 88 88 90 93 95 89 88
58 51 52 59 65 71 76 78 84 88 90 97 99 100 99 99 98 98 99 96 94 93 92 92 94 94 91 86 88 95 90 90 88 90 95 97 93 88
53 56 64 73 80 86 88 93 94 96 100 100 100 100 100 100 100 100 98 96 94 92 90 90 94 96 94 89 70 70 75 84 91 93 92 92 92 90
63 63 74 80 84 89 93 94 96 100 100 100 100 100 100 100 100 99 98 98 97 94 94 89 90 92 95 92 92 87 88 92 94 96 92 89 90 89
62 68 76 83 89 93 95 98 99 100 100 100 100 100 100 100 100 100 100 99 98 96 93 89 88 90 94 98 94 78 73 74 84 99 98 97 92 88
65 72 77 84 91 96 98 98 96 95 100 100 100 100 100 100 100 100 99 99 96 96 96 96 95 96 98 95 91 88 81 76 78 85 92 98 98 93
73 78 81 88 94 97 96 96 95 98 100 100 100 100 100 100 100 100 100 100 98 96 94 93 92 89 96 96 88 82 82 79 79 80 81 85 91 89

GFSNE_925_rhum_033.txt.gz
RH
83 75 67 65 68 57 56 69 80 83 58 42 43 44 44 46 49 48 47 44 53 66 71 75 78 80 80 80 81 81 80 78 76 74 73 71 69 72
92 90 78 68 55 53 63 64 68 70 70 56 59 57 54 53 56 61 52 58 66 67 67 70 75 81 81 80 80 80 79 77 76 75 73 70 72 72
92 85 77 69 71 82 80 85 90 84 89 81 67 62 72 83 83 93 88 67 66 67 66 69 79 84 83 81 81 80 78 78 78 76 75 72 72 72
90 84 87 94 99 98 95 89 85 84 88 95 97 98 98 98 98 94 76 80 75 73 77 77 80 80 74 77 81 82 82 82 80 79 76 74 72 71
92 95 100 97 95 95 95 97 97 96 98 97 100 95 94 78 80 88 89 84 75 66 63 60 61 64 72 79 82 82 82 82 81 82 81 79 76 74
100 97 92 90 89 98 100 100 96 98 99 98 98 97 81 82 86 83 70 61 60 60 60 62 63 66 72 73 72 76 81 84 84 84 84 84 83 80
97 99 99 99 98 92 92 99 99 98 98 98 94 84 80 77 68 57 61 61 61 64 63 63 61 60 62 63 63 64 66 68 74 79 82 83 82 79
94 97 98 100 100 99 97 95 90 92 97 94 82 77 62 58 60 59 73 80 78 68 65 67 67 65 63 62 63 64 67 71 76 81 83 82 81 80
100 100 100 99 93 80 94 97 98 94 88 88 79 67 62 60 73 73 79 82 78 72 72 69 66 66 62 60 60 63 67 71 74 78 81 83 81 81
98 95 89 75 71 72 77 81 85 82 80 78 74 72 72 70 71 72 75 74 72 67 62 68 64 64 63 62 63 66 68 72 75 77 82 84 83 82
84 86 78 72 65 84 77 76 81 71 73 79 78 77 82 84 83 82 83 79 78 74 70 71 69 69 67 68 60 64 64 66 70 75 76 80 83 83
75 71 59 73 78 80 80 75 76 71 65 66 65 65 64 60 59 64 71 82 86 84 68 73 75 83 90 66 66 64 68 70 72 71 75 77 77 78
54 57 65 82 89 87 86 80 71 74 72 66 64 50 48 54 60 64 69 75 87 89 88 93 94 96 90 90 82 81 79 75 71 74 75 77 81 84
66 67 74 91 89 85 75 68 75 79 68 54 49 53 59 72 83 88 93 94 96 97 100 100 98 98 98 92 89 82 82 83 87 90 90 90 90 90
78 85 79 73 67 64 60 73 77 61 54 56 62 70 77 80 82 85 94 96 97 94 93 94 100 100 100 96 93 92 93 88 90 91 95 92 94 96
77 77 68 56 54 61 60 56 58 60 66 74 77 76 78 79 81 85 89 93 96 96 95 90 92 99 98 99 98 94 91 94 89 94 95 96 94 95
75 62 46 46 51 54 58 65 70 71 75 84 88 90 90 89 91 93 94 95 96 95 94 93 93 92 95 100 98 93 91 88 88 92 96 97 95 92
66 46 46 52 59 66 72 76 83 87 89 94 99 99 98 98 98 98 98 98 98 91 92 94 91 94 94 89 93 98 96 95 90 87 88 95 94 89
53 47 56 64 72 80 85 87 91 93 98 100 100 100 97 99 97 97 96 94 95 94 94 97 98 97 94 92 73 72 75 80 85 86 89 91 94 92
53 56 64 72 77 83 88 91 92 94 96 97 100 100 99 100 99 96 96 97 96 95 94 93 94 93 95 94 95 89 87 92 93 93 94 93 91 91
54 57 65 73 80 87 92 94 95 95 95 98 100 99 96 99 98 98 97 95 95 94 95 92 90 92 96 99 94 85 78 75 76 85 94 98 94 89
59 61 69 75 81 88 94 95 95 95 94 96 98 99 99 98 100 100 97 95 95 96 97 96 95 94 98 96 91 86 84 82 82 79 79 86 98 95
64 70 74 79 84 86 90 91 91 91 93 90 100 100 98 100 100 100 98 98 96 98 96 94 91 89 94 91 89 96 91 88 82 77 78 80 85 87

GFSNE_925_rhum_039.txt.gz
RH
99 100 96 91 85 82 80 72 72 90 91 86 83 74 60 76 82 72 62 71 87 92 94 84 85 89 98 85 83 85 85 83 83 82 80 78 77 75
100 100 100 100 97 90 88 80 76 82 96 89 91 90 87 86 83 88 94 98 97 98 98 99 100 92 77 78 82 83 83 82 81 79 78 76 75 72
95 100 100 100 100 99 96 92 93 94 96 99 99 100 99 96 100 100 99 98 99 96 99 100 90 80 81 82 82 82 79 78 79 79 77 75 72 70
100 100 100 100 99 98 97 96 95 99 100 99 100 99 100 100 99 99 98 99 100 97 72 83 83 85 78 73 73 75 78 80 82 81 78 76 73 73
100 100 100 98 97 96 96 99 100 100 100 99 100 99 100 99 100 100 99 98 78 62 80 86 70 67 71 72 74 74 78 79 79 80 80 76 78 77
100 100 100 100 100 100 100 100 99 100 99 100 98 99 100 100 99 91 79 72 65 65 65 62 72 70 71 73 76 78 76 76 76 76 76 77 78 78
99 99 99 99 99 99 100 100 100 99 99 99 99 99 98 94 86 78 79 70 67 68 63 56 56 55 54 58 59 62 74 80 79 78 77 77 77 74
100 100 99 100 99 99 100 100 100 100 99 99 98 96 84 80 71 68 73 72 73 64 67 68 58 58 55 59 59 80 77 76 78 78 78 78 78 74
98 98 98 99 100 99 99 99 99 99 98 85 86 87 76 72 73 73 73 76 77 74 79 74 59 61 58 58 57 69 80 80 82 84 84 81 79 78
95 94 93 88 88 88 78 75 75 77 74 75 77 79 80 80 82 84 85 86 84 74 69 80 71 65 58 56 55 62 77 81 78 80 84 87 86 82
67 74 68 65 77 82 79 79 81 77 75 85 80 76 74 78 82 85 83 81 80 73 72 84 80 78 69 56 56 56 64 69 73 86 91 89 89 88
61 60 76 82 84 87 90 84 82 78 75 72 65 61 64 57 56 61 58 61 67 80 81 77 84 92 88 75 69 69 70 71 79 83 90 94 95 94
61 66 69 86 91 90 86 80 76 77 77 69 62 58 48 50 57 63 66 72 78 79 78 90 99 94 95 89 85 85 81 76 80 79 78 85 88 97
72 75 82 91 85 78 71 71 74 77 66 59 54 55 67 74 76 78 78 78 80 84 87 96 98 93 94 92 90 86 85 86 85 82 79 73 79 85
73 81 84 75 68 55 49 67 69 54 57 60 64 69 74 78 80 82 83 84 86 86 90 93 94 96 97 95 94 95 96 85 87 84 80 86 82 81
73 70 74 63 53 54 57 56 62 66 75 77 78 86 87 91 94 97 96 92 91 92 91 95 97 99 96 97 100 99 97 98 92 96 94 90 94 95
76 49 50 47 53 57 63 69 75 80 88 91 92 95 99 97 91 92 91 91 100 97 95 95 92 94 95 97 98 97 97 95 97 98 99 98 96 96
72 58 52 53 59 65 74 78 85 89 92 96 97 99 93 92 96 93 98 99 100 99 100 97 98 97 95 92 97 100 100 99 94 95 97 99 94 92
66 52 53 56 62 73 77 80 84 88 94 92 92 93 95 96 97 97 99 100 99 100 99 95 96 99 94 92 76 75 78 82 86 92 92 94 96 93
54 55 55 56 59 67 73 76 80 85 88 91 92 96 95 98 100 100 100 100 100 99 100 99 99 100 96 91 91 88 88 92 94 95 95 94 94 96
55 56 59 60 61 64 71 74 76 79 87 94 86 81 82 90 100 100 100 98 95 98 96 93 90 93 97 98 95 85 80 79 83 90 90 94 93 91
56 58 59 62 64 67 71 73 77 77 76 75 72 72 71 81 97 100 100 99 98 98 97 97 96 99 100 99 90 87 86 83 83 84 85 88 95 94
58 61 62 63 63 64 67 70 74 76 75 72 71 76 87 98 98 98 100 99 99 99 99 98 97 97 99 98 92 92 88 86 85 90 88 84 90 86

GFSNE_925_rhum_045.txt.gz
RH
99 98 100 100 98 100 100 100 97 99 95 82 76 72 74 87 94 92 96 98 100 95 93 90 98 97 100 98 100 99 100 99 98 99 99 97 92 85
97 98 97 98 99 99 99 99 99 100 99 94 86 84 83 94 96 100 100 100 100 98 98 98 96 98 98 100 99 100 100 100 100 100 98 92 88 85
96 94 92 95 97 96 96 96 97 100 100 99 100 98 99 98 100 100 100 100 100 100 98 99 100 100 98 99 100 98 100 98 89 83 79 76 76 76
89 88 87 88 92 93 95 95 98 100 100 100 99 100 100 100 100 100 100 100 100 100 99 98 97 98 99 100 98 92 89 83 79 78 78 79 78 78
92 92 93 93 92 91 92 95 97 99 100 100 100 99 99 100 100 100 100 100 100 100 100 99 98 99 92 89 83 79 79 79 80 81 81 82 80 79
98 97 95 94 97 100 100 100 100 100 100 99 100 100 100 100 100 99 99 100 97 89 72 85 81 79 81 81 84 82 80 81 83 84 82 82 82 81
100 100 99 99 99 99 99 99 99 99 97 97 98 98 99 99 99 99 98 90 77 71 67 66 63 63 58 49 41 42 70 80 82 83 84 83 82 80
99 99 99 99 99 100 100 100 99 94 92 95 98 96 90 86 84 80 76 74 73 67 66 58 56 51 36 40 45 50 62 84 88 88 86 85 82 79
94 92 91 94 95 98 97 95 96 96 96 93 88 87 82 77 76 75 76 77 78 74 81 72 51 48 49 53 56 61 86 88 89 88 89 88 85 85
63 58 55 62 80 82 70 72 73 71 84 78 77 77 78 79 81 84 86 88 86 74 71 90 66 60 59 56 54 53 63 87 89 90 88 92 92 93
59 75 72 75 84 95 79 75 79 80 80 85 84 82 86 84 86 86 83 89 83 68 68 76 79 78 66 66 72 86 96 94 93 86 90 94 94 95
54 56 68 85 88 88 86 79 69 74 75 71 65 62 60 57 59 61 70 66 64 70 78 87 86 85 80 70 70 71 75 69 61 59 76 90 94 94
58 61 64 90 87 83 78 76 71 78 79 74 56 51 51 54 62 74 77 78 80 77 77 87 96 94 91 84 80 70 62 59 61 60 62 65 70 97
66 66 74 84 79 73 67 66 69 75 70 51 55 60 66 70 74 76 79 82 85 86 83 86 94 92 92 93 90 83 82 76 78 71 72 70 71 82
69 82 84 79 81 65 54 73 68 57 57 67 78 78 82 88 89 91 90 93 93 88 85 84 88 92 100 97 95 89 91 89 90 89 83 77 74 77
69 76 58 58 58 57 54 57 62 69 81 87 87 92 92 96 100 97 93 95 93 83 80 82 85 91 98 100 100 96 93 96 80 87 94 92 87 79
81 82 60 47 51 52 58 66 73 79 88 89 93 94 95 96 98 91 88 95 100 99 88 83 83 88 91 94 100 100 100 100 98 93 96 100 89 88
80 79 66 50 52 55 62 69 74 78 82 92 89 95 95 97 96 93 97 99 100 99 96 84 88 96 95 84 90 100 100 100 100 99 96 100 100 84
64 56 63 57 54 56 58 60 65 68 74 76 80 82 82 88 95 91 88 91 98 95 90 91 92 100 95 94 78 76 90 91 91 93 93 100 99 88
72 54 52 52 54 58 60 62 62 66 70 70 70 74 78 77 84 83 82 89 91 93 100 98 96 97 96 92 91 89 86 84 88 90 91 93 94 100
67 66 59 55 55 58 59 62 64 63 62 64 66 66 65 71 74 76 81 98 100 100 98 97 89 96 98 99 96 88 84 83 92 98 98 99 96 92
58 61 55 55 56 59 60 60 61 60 59 58 58 62 67 80 90 95 98 100 100 100 100 97 91 94 99 100 95 93 90 89 85 91 94 94 95 93
48 51 52 53 54 55 57 61 64 62 61 67 82 93 97 98 96 97 98 97 97 99 100 100 100 100 100 100 96 94 93 92 91 92 90 89 92 92

GFSNE_925_rhum_048.txt.gz
RH
95 92 96 98 99 99 99 99 100 95 92 84 81 81 82 81 77 84 95 97 100 100 100 100 98 100 96 90 94 100 100 100 100 100 99 99 99 100
98 95 91 89 87 88 86 87 92 100 99 97 95 96 93 91 87 91 97 98 96 100 98 100 96 90 89 99 98 98 99 99 99 99 100 100 100 100
94 91 89 86 83 83 82 86 92 100 100 100 100 97 96 98 100 100 99 100 100 99 100 100 99 99 99 98 98 100 98 98 100 100 100 99 95 90
95 93 94 95 95 97 98 97 97 100 100 100 99 97 99 98 100 100 98 98 98 98 98 98 98 98 100 100 98 98 99 100 99 94 84 78 78 79
98 97 98 98 99 100 100 99 99 99 99 99 99 99 99 99 99 100 99 98 99 99 99 99 100 100 99 99 100 100 96 90 84 84 81 82 82 81
100 100 99 99 99 96 96 96 98 98 99 99 100 99 99 100 99 100 100 100 98 97 94 96 94 89 92 91 89 86 84 84 83 82 83 82 82 82
98 98 99 100 99 95 98 99 98 97 96 95 96 96 99 97 99 98 97 87 75 71 67 66 66 68 65 60 56 49 39 57 74 79 82 84 84 83
96 96 96 96 98 100 100 99 100 98 91 90 93 89 84 82 79 77 77 74 73 70 68 60 56 47 43 42 36 40 54 81 84 86 88 88 84 83
81 75 76 77 80 83 86 84 85 84 94 85 85 84 82 80 78 77 78 79 79 75 79 68 53 50 52 52 54 56 74 88 89 90 90 89 84 86
53 51 55 71 91 77 65 67 73 78 89 81 80 81 81 83 85 86 87 90 87 71 68 83 63 58 56 54 54 54 52 70 89 91 91 88 90 92
63 78 81 78 88 97 74 67 68 81 80 82 82 81 84 85 84 86 87 83 83 71 68 76 76 76 62 62 65 83 99 96 94 97 97 94 95 94
50 54 58 87 86 84 82 78 65 66 75 72 59 48 47 50 54 57 60 70 67 69 76 83 83 82 76 70 67 66 66 87 87 81 62 70 93 95
58 58 59 86 85 78 76 64 71 75 77 68 47 49 55 65 71 77 80 85 86 80 78 91 97 96 92 83 78 73 72 66 64 63 63 63 63 94
67 64 75 88 83 77 64 68 73 76 64 50 55 63 71 75 75 78 80 83 85 86 85 88 96 96 94 95 92 80 80 76 72 65 67 74 73 73
60 77 81 67 72 68 54 69 67 55 63 70 80 81 86 89 92 94 90 90 92 91 87 86 88 88 97 100 97 97 97 83 83 79 72 70 70 68
70 78 70 46 43 50 48 53 61 68 83 89 89 90 90 94 100 100 88 84 88 75 71 74 84 88 91 97 100 100 100 100 83 86 88 91 83 77
84 81 74 53 44 46 48 57 64 71 79 89 86 89 91 94 98 99 92 90 100 100 80 63 71 84 90 93 100 99 94 96 87 87 99 100 100 83
82 80 71 70 51 50 51 54 57 65 72 77 86 95 94 93 96 89 86 95 96 87 77 64 76 92 91 76 79 80 91 95 92 94 96 100 100 74
82 65 49 53 53 51 54 57 58 58 64 68 72 70 70 71 81 86 79 81 80 77 73 79 92 100 96 95 78 82 89 85 84 97 91 91 95 82
76 75 67 56 52 52 54 58 58 59 60 61 61 61 65 73 77 77 75 81 84 85 92 92 96 96 96 92 89 88 85 85 82 88 93 93 91 98
50 59 61 62 58 54 55 58 60 60 58 57 60 65 66 72 74 76 85 98 100 99 98 97 88 96 97 99 96 90 83 83 91 96 98 100 96 92
47 47 51 57 54 53 54 56 57 57 57 59 60 66 79 92 96 96 97 99 98 98 99 93 90 93 97 99 92 91 92 90 82 90 95 95 96 91
47 43 43 46 48 50 52 55 59 58 58 65 86 94 98 97 96 96 96 97 97 98 98 100 96 100 100 100 97 95 94 95 94 94 92 89 93 95

GFSNE_925_rhum_051.txt.gz
RH
98 94 89 87 97 99 97 96 96 94 79 93 90 86 86 85 82 83 81 84 98 98 98 100 100 100 100 100 99 98 98 93 88 98 97 98 98 99
94 91 89 87 85 84 82 88 98 98 93 98 96 97 90 90 91 88 94 97 99 88 100 100 98 100 99 98 96 92 84 90 98 99 99 97 100 99
97 94 92 90 90 86 87 92 96 99 99 100 99 94 91 93 96 96 98 100 100 100 100 97 86 89 91 89 92 93 92 99 97 99 99 100 99 99
96 95 95 96 94 94 94 94 94 96 98 99 100 95 96 95 98 96 98 98 98 98 96 94 97 98 97 96 96 96 97 97 98 100 100 100 97 89
97 95 96 97 98 96 93 92 94 95 96 99 99 99 96 94 96 96 98 98 96 94 95 93 98 98 99 98 98 98 98 100 98 98 97 92 84 82
98 99 97 96 94 94 93 94 93 94 97 99 99 97 97 96 98 98 97 88 87 88 88 92 95 92 94 95 95 94 93 92 91 90 86 84 83 82
99 99 100 99 93 90 94 95 94 97 98 99 98 96 94 91 94 92 90 80 74 67 64 63 62 64 67 70 66 62 61 58 55 70 74 78 81 83
96 95 92 92 98 99 99 99 99 96 92 91 91 80 81 80 80 81 80 73 65 68 74 64 53 52 43 36 33 34 28 28 53 76 83 87 86 84
79 78 76 74 73 81 81 82 79 87 82 80 80 82 79 78 75 78 82 84 76 79 82 65 54 60 50 51 51 52 70 88 89 88 90 89 85 84
47 52 64 86 87 64 59 62 68 80 83 80 82 84 84 89 88 88 88 86 75 80 67 73 72 66 59 55 54 55 66 73 89 92 92 90 90 85
66 73 71 86 89 90 68 61 57 75 79 80 78 77 80 82 84 83 91 86 68 65 71 80 75 78 76 74 65 80 80 84 95 94 92 92 93 95
50 54 75 86 85 85 80 69 61 66 72 69 54 44 43 46 50 54 59 78 75 70 73 89 84 85 76 70 64 63 62 61 75 96 100 99 99 95
56 55 56 87 83 77 78 59 68 75 74 62 44 49 57 65 70 73 76 81 84 88 80 92 96 92 91 85 80 77 80 70 68 66 65 72 76 85
59 58 70 84 83 82 70 67 82 72 55 50 58 68 72 74 77 78 81 86 87 88 86 90 98 97 98 92 85 80 80 86 88 82 76 71 69 83
53 62 82 62 56 59 53 72 63 51 58 66 78 80 84 86 88 88 88 86 77 76 79 83 86 90 98 100 94 94 98 86 94 97 90 80 82 83
65 71 73 61 43 48 48 48 55 62 74 83 83 82 84 91 99 100 97 96 96 77 68 71 73 83 95 100 100 100 97 98 88 92 98 100 99 97
89 83 77 70 48 43 43 48 58 66 72 79 83 90 88 89 90 95 90 98 97 89 86 89 64 66 74 81 100 98 95 91 92 97 100 100 99 98
83 82 75 58 61 52 48 48 49 53 57 66 68 69 78 86 87 78 77 93 92 84 82 83 92 98 96 80 74 76 91 94 93 98 100 100 98 88
81 81 70 58 47 49 48 50 52 52 55 56 59 61 64 64 68 82 88 94 89 85 84 93 100 100 91 90 77 92 98 97 96 94 94 96 97 88
76 74 70 68 61 54 51 51 50 52 54 55 56 56 58 63 68 71 78 86 91 94 99 100 100 100 96 89 89 86 86 85 88 89 90 91 93 97
59 54 47 52 57 58 54 51 52 53 52 53 54 57 59 66 68 75 86 100 100 99 97 95 95 100 98 100 96 88 82 83 90 94 99 100 96 93
38 44 44 44 50 53 50 50 53 53 53 54 56 60 71 90 98 98 99 100 100 100 100 96 88 96 100 100 92 90 87 86 84 93 97 97 96 89
41 43 42 40 43 46 48 50 51 53 54 57 68 87 95 100 98 98 99 100 100 100 100 100 100 100 100 100 99 97 95 94 91 90 89 89 96 97

GFSNE_925_rhum_054.txt.gz
RH
100 100 99 98 100 99 99 100 88 79 74 84 81 87 81 82 77 95 85 96 98 90 97 99 96 99 97 98 100 96 98 92 92 96 93 93 87 90
94 96 96 96 91 89 92 93 99 91 83 94 96 87 82 87 92 92 90 99 99 99 99 100 100 98 97 99 95 95 97 92 91 92 97 97 99 95
95 95 93 91 96 96 97 98 98 98 91 99 96 91 91 96 98 99 98 96 97 99 100 100 96 94 93 92 97 94 92 87 84 96 100 99 97 98
96 98 97 95 97 96 97 98 100 92 99 99 99 100 96 98 95 98 99 96 99 94 100 97 95 94 92 92 92 90 87 89 91 98 97 94 98 99
96 94 94 95 98 98 95 98 96 94 97 100 98 99 100 89 93 95 92 85 83 84 88 90 86 85 90 94 93 98 98 97 99 95 96 97 99 93
99 98 98 99 99 98 93 91 91 99 100 100 99 98 100 99 98 96 82 86 82 77 74 72 74 78 84 94 97 93 95 95 97 94 94 93 91 87
99 99 99 94 89 91 99 99 98 95 95 99 91 87 83 76 76 75 68 62 60 69 61 56 59 59 61 63 64 66 72 79 82 82 82 78 75 79
98 94 98 98 98 97 97 98 94 94 98 92 88 70 68 64 62 64 64 60 55 71 62 49 51 50 48 50 53 36 32 37 48 65 68 71 82 84
94 97 93 90 86 88 88 88 83 83 67 71 59 57 57 65 81 83 76 69 58 58 68 51 52 48 52 54 54 47 49 80 88 88 87 89 89 88
52 56 78 82 82 68 70 73 74 79 82 76 75 76 79 82 83 83 79 74 62 57 68 60 54 56 57 61 67 54 52 72 84 91 93 92 91 87
67 73 72 78 91 80 74 73 58 70 72 70 72 70 70 72 76 76 80 69 58 46 60 68 60 63 60 62 66 60 63 61 68 84 96 91 88 89
54 60 64 80 84 85 77 62 52 55 70 74 58 50 47 54 44 65 70 80 68 70 67 77 75 76 78 61 64 67 70 73 70 62 83 96 91 92
52 54 59 71 84 78 76 58 60 69 72 60 47 50 61 69 72 80 83 92 91 85 78 89 98 88 84 83 76 69 70 72 75 77 79 88 94 98
59 59 63 66 84 83 78 66 76 71 57 48 51 54 63 76 88 92 90 91 95 88 84 96 100 100 94 93 81 72 71 77 82 88 91 94 93 88
63 58 79 70 58 58 59 68 71 57 52 57 60 74 84 94 80 92 97 94 81 85 78 78 93 100 100 98 88 87 89 82 87 92 99 99 97 94
60 74 75 66 52 53 55 54 58 59 62 66 71 74 78 96 95 92 98 92 90 85 88 73 81 92 97 93 94 97 96 94 88 91 92 96 96 94
76 82 75 66 56 48 48 50 56 63 68 72 74 72 71 73 81 84 89 90 86 78 76 80 90 96 95 98 99 93 89 86 87 92 98 98 94 94
85 76 66 64 54 49 45 44 48 58 61 72 77 80 77 78 80 82 86 86 82 75 72 74 82 90 93 89 93 93 91 87 88 93 99 98 97 95
73 69 71 65 60 58 57 60 62 65 69 70 80 83 87 88 85 79 77 79 78 76 74 83 96 99 90 90 74 84 95 92 93 91 90 92 93 90
67 71 72 71 67 66 66 68 68 70 76 78 82 89 92 90 87 83 82 83 84 87 93 97 99 100 97 91 90 84 86 94 95 93 89 90 89 90
64 67 67 67 67 71 74 78 74 76 77 82 88 91 92 94 90 88 92 97 99 98 95 93 91 94 97 100 96 86 82 81 90 96 95 96 94 92
62 65 57 59 67 69 73 78 78 79 78 83 86 89 90 95 99 100 100 100 97 95 96 97 98 100 100 100 94 91 89 86 84 87 91 94 95 88
28 32 40 47 50 43 45 64 75 76 77 79 85 89 96 100 100 100 100 100 99 99 98 96 94 92 93 96 96 94 94 93 91 88 86 86 90 94

GFSNE_925_rhum_057.txt.gz
RH
100 100 100 99 98 96 94 95 80 80 71 80 86 88 82 80 74 84 91 99 99 98 98 97 98 92 99 100 100 99 95 94 92 85 87 89 90 95
96 96 96 94 96 98 99 98 96 90 83 87 97 90 82 88 86 92 99 96 93 98 99 99 100 100 97 97 100 99 99 95 96 97 93 90 97 92
93 91 92 92 92 95 91 93 92 93 85 98 96 91 93 92 94 91 99 100 100 97 99 99 97 93 94 95 95 93 90 90 94 98 91 88 90 95
92 95 94 92 94 93 94 94 97 99 97 94 99 98 98 99 97 97 97 100 99 99 94 97 94 91 91 91 88 88 89 90 88 96 99 96 94 92
90 89 90 91 97 99 97 100 94 92 92 97 99 94 98 91 86 99 92 81 88 81 82 89 86 83 83 90 99 100 92 91 93 91 93 91 91 95
96 94 96 98 100 97 91 90 89 97 97 97 91 95 97 98 94 91 79 74 68 70 67 62 64 62 65 76 92 92 90 92 94 93 94 91 91 94
99 99 98 92 91 94 97 97 94 92 90 96 92 88 84 76 73 72 64 59 56 58 57 53 49 54 54 56 59 59 62 79 86 88 90 92 89 84
99 99 95 95 92 89 93 92 92 91 93 91 88 76 66 62 56 63 66 70 65 60 58 48 47 49 44 47 48 43 33 29 36 55 69 72 71 73
97 95 91 89 88 85 83 83 77 59 56 71 60 54 57 67 76 77 78 71 66 62 59 55 48 52 51 55 61 56 48 48 76 90 88 88 88 88
78 76 77 77 62 64 64 66 68 72 80 72 74 74 77 79 80 77 78 77 67 55 54 60 54 58 58 59 62 60 58 61 64 73 87 95 93 91
62 67 68 72 84 65 72 58 55 59 65 52 55 55 54 54 59 66 82 73 72 44 55 69 67 66 64 63 63 59 56 69 62 60 73 97 94 90
50 59 47 71 81 83 76 62 51 52 60 74 58 50 47 54 39 50 66 85 79 77 68 74 85 80 89 67 64 66 67 71 74 77 66 76 92 96
47 52 56 58 82 79 71 65 55 66 67 61 50 45 54 64 68 74 72 82 95 88 86 82 95 91 85 85 81 72 70 71 74 76 81 85 88 93
55 56 57 58 79 85 82 74 67 63 64 50 46 47 50 62 80 85 86 79 91 86 79 92 99 97 96 92 88 74 75 74 73 80 88 88 94 96
60 57 58 67 60 57 62 67 71 67 53 49 52 58 72 86 87 75 93 97 81 75 75 73 80 100 99 99 96 96 92 82 78 79 82 83 92 93
62 54 64 71 63 57 52 50 51 54 54 57 62 67 72 81 92 94 94 94 94 89 84 82 68 94 100 99 98 97 94 94 82 86 86 86 96 96
68 72 76 73 63 54 50 49 49 54 61 67 68 71 70 68 74 82 86 90 92 89 83 79 80 81 79 92 100 99 95 95 91 89 93 94 98 100
77 80 75 66 62 54 46 42 43 48 56 63 73 78 78 75 78 81 83 86 90 88 82 78 77 82 89 91 96 93 97 98 92 91 92 95 97 98
80 75 71 69 63 58 56 53 55 60 63 65 73 78 82 86 88 85 82 80 82 82 82 80 83 91 91 90 83 82 88 94 93 95 91 94 98 93
71 70 71 72 72 67 64 62 64 66 68 68 72 74 80 85 88 88 87 87 88 88 90 94 94 95 96 91 92 86 77 87 97 98 97 95 94 93
67 67 66 69 67 65 65 68 70 72 73 75 77 78 79 84 88 88 90 86 90 95 96 94 93 94 98 98 96 90 86 82 82 87 93 96 95 93
62 59 60 59 61 58 62 68 76 76 71 70 71 74 83 87 90 92 95 99 99 96 94 95 97 98 95 96 90 90 91 91 91 92 94 93 97 92
72 63 54 43 41 48 56 61 67 68 69 72 75 77 78 84 86 99 100 100 99 97 96 94 93 91 93 95 91 91 90 90 91 94 92 88 92 91

GFSNE_925_rhum_060.txt.gz
RH
100 100 99 100 100 99 97 93 90 88 88 88 92 92 85 84 83 82 89 98 93 93 94 96 99 98 100 100 100 98 93 84 85 98 100 90 88 88
98 97 96 95 95 95 95 91 90 88 91 90 98 94 89 91 90 88 98 99 90 92 94 89 98 99 99 99 99 100 100 100 100 99 95 91 92 92
91 91 92 93 88 93 94 93 92 92 93 100 99 95 97 95 93 94 89 94 99 95 97 90 94 90 89 92 93 94 94 94 93 96 97 98 97 95
92 91 92 93 91 94 94 90 92 97 95 97 100 95 99 97 89 85 78 78 81 88 88 91 92 90 85 82 84 86 86 87 89 90 91 95 100 99
90 90 90 92 92 97 95 96 95 91 88 94 98 91 96 99 83 84 84 78 79 73 71 71 67 72 76 85 96 99 89 88 91 92 89 90 90 92
90 91 93 94 96 97 92 93 94 94 92 94 84 82 92 87 86 87 68 63 59 62 49 58 55 54 57 58 72 90 93 90 89 88 88 89 91 89
98 97 97 98 93 96 96 94 95 89 88 90 91 83 81 75 68 63 61 59 54 62 52 44 50 47 45 52 55 56 55 64 83 87 87 88 95 93
97 99 96 93 91 91 90 91 90 90 90 87 82 82 65 59 63 66 69 72 72 62 59 33 48 43 47 48 46 42 36 32 34 40 56 64 72 74
95 93 90 89 88 86 85 86 72 60 72 71 63 59 66 69 66 68 78 76 74 58 60 36 53 53 56 58 62 62 59 49 50 69 92 92 89 88
94 88 76 68 61 62 65 64 67 72 63 63 68 73 70 76 78 79 76 77 70 63 56 61 55 60 53 55 62 61 55 61 62 68 81 97 96 94
52 65 72 76 76 59 65 52 53 58 58 48 50 48 45 45 47 52 62 82 74 58 61 60 69 69 63 65 61 60 59 68 78 71 71 82 98 97
55 58 62 75 82 70 68 64 52 53 57 61 59 50 41 41 41 38 66 72 85 80 74 72 76 79 77 73 65 67 69 68 74 70 84 85 86 91
47 50 51 50 68 74 67 66 55 64 66 64 51 44 46 54 62 65 62 65 81 92 95 87 84 87 88 86 77 61 68 70 70 70 71 69 88 92
50 51 53 54 52 72 85 74 68 64 62 57 46 44 48 55 64 75 75 74 77 77 79 86 87 85 90 91 94 73 62 56 61 64 68 77 83 85
56 54 55 60 60 61 62 83 73 66 54 50 48 52 58 67 78 87 80 81 77 72 72 77 81 83 98 95 93 96 96 66 64 73 67 74 83 87
64 59 51 58 63 56 57 56 56 50 50 52 56 62 68 73 67 76 88 90 93 84 76 79 81 82 81 100 100 99 91 94 62 72 76 83 84 87
60 62 67 67 64 58 51 46 46 48 52 54 56 66 66 68 70 72 81 85 90 90 86 75 81 82 82 84 96 97 87 87 86 86 90 94 89 96
69 68 67 72 69 62 57 49 44 45 49 54 62 70 73 73 70 72 80 82 84 78 81 84 82 80 84 85 88 95 95 93 84 86 91 94 91 83
74 75 76 76 69 65 60 53 47 44 44 48 55 63 70 77 79 82 84 81 78 80 80 80 85 85 94 91 81 84 85 85 94 93 94 95 96 86
79 80 73 66 68 69 67 63 59 57 60 63 64 62 60 65 73 74 76 82 83 86 88 86 90 92 98 91 91 87 81 80 79 85 92 90 90 96
66 66 62 59 61 68 68 66 63 64 64 68 68 68 68 75 79 76 76 89 89 88 98 95 92 94 98 98 96 90 88 86 92 96 100 98 98 93
64 60 54 53 52 55 57 60 61 65 67 70 76 74 72 73 77 79 84 92 95 98 96 95 93 92 90 98 92 89 88 88 84 87 95 97 99 93
77 72 68 62 57 56 52 54 54 59 59 57 62 61 65 76 76 82 93 97 98 97 96 98 96 96 98 98 92 94 91 91 89 92 88 79 95 98

GFSNE_925_rhum_063.txt.gz
RH
83 89 94 100 100 100 100 96 92 97 97 93 95 95 89 88 85 83 89 99 94 92 90 84 82 83 100 99 100 99 98 91 90 89 98 100 100 100
100 99 99 98 99 99 97 94 91 92 90 96 100 98 95 94 92 88 97 99 99 99 89 84 86 90 94 97 99 99 99 99 100 100 100 100 97 92
92 93 94 94 94 92 93 93 92 91 94 100 100 99 99 98 91 85 85 88 95 99 96 81 85 86 86 85 89 93 96 98 99 100 96 95 91 91
89 91 90 89 90 88 95 92 90 91 96 99 100 99 100 93 87 81 83 80 78 82 81 77 76 78 79 80 82 84 85 88 88 91 98 96 99 96
88 90 89 93 90 92 92 91 93 95 93 98 99 96 92 92 84 79 87 72 74 71 63 62 57 62 66 74 85 84 86 88 87 90 91 91 89 92
90 91 92 91 92 95 97 96 95 92 92 90 89 85 87 88 85 80 66 61 62 61 50 50 53 47 47 51 52 70 86 89 90 91 91 88 88 92
93 93 94 95 95 95 95 94 91 89 87 89 84 86 81 83 72 66 60 53 61 57 50 39 35 42 41 49 50 46 45 48 64 84 86 84 85 87
97 97 97 96 98 96 92 90 90 88 86 85 82 80 77 66 65 63 64 68 68 63 47 44 48 45 50 52 53 54 50 39 32 30 38 54 68 78
99 99 95 91 89 88 87 84 74 75 85 81 80 67 62 64 64 63 67 72 67 55 62 37 54 52 55 58 59 61 56 49 47 57 71 88 93 90
95 92 90 87 81 68 63 57 57 59 56 53 63 66 69 69 73 72 72 73 69 65 54 50 54 57 54 57 61 61 54 60 67 69 79 81 96 97
90 76 69 68 68 60 53 52 55 62 57 47 52 53 50 51 52 57 66 76 69 65 65 65 66 62 66 67 63 66 68 74 80 81 85 85 82 95
57 67 70 74 92 71 62 62 52 52 57 58 57 51 41 39 44 37 55 71 79 82 77 80 74 67 66 71 68 68 63 68 67 75 83 84 89 88
45 47 56 84 82 79 63 63 52 56 67 63 52 43 42 49 56 58 56 54 61 80 90 83 81 77 83 82 66 64 68 65 58 58 60 62 76 97
44 45 48 70 68 76 82 69 70 67 56 61 50 43 44 49 58 64 72 71 68 67 75 81 81 79 79 86 85 69 62 51 48 49 60 64 69 72
46 49 49 66 58 71 71 80 80 68 58 54 47 45 51 57 64 78 84 80 76 80 75 77 82 87 92 87 87 91 97 63 57 75 53 65 71 73
62 61 57 63 60 52 47 60 71 58 55 50 50 51 62 73 76 69 74 86 88 71 73 77 81 85 89 89 88 98 94 90 57 68 78 77 71 73
77 69 62 70 72 63 57 49 46 44 50 53 54 56 63 69 68 70 72 80 89 85 79 60 71 80 85 92 100 97 87 89 84 84 89 90 82 76
88 73 66 72 77 76 66 53 47 44 42 43 48 54 63 71 73 71 73 78 83 83 82 70 84 85 82 73 72 78 89 89 82 84 89 98 88 73
73 75 80 72 72 80 68 62 55 48 44 42 45 49 56 65 70 76 77 81 83 79 67 75 85 90 100 96 80 85 85 82 86 90 96 100 96 85
69 77 65 64 65 64 65 66 64 61 57 54 54 58 61 63 67 66 67 73 74 72 75 79 88 87 97 91 89 86 82 87 90 92 97 98 96 90
63 69 68 66 62 55 54 61 65 65 61 60 60 62 62 64 62 63 72 85 88 89 93 91 90 94 98 98 97 90 87 85 91 95 95 100 96 95
59 55 52 49 48 47 50 54 60 63 60 59 62 65 66 69 71 71 75 81 81 85 86 90 91 90 90 99 94 93 91 88 85 87 95 96 97 91
68 58 49 49 53 56 55 52 52 51 52 53 57 60 65 71 67 71 74 83 91 98 98 96 92 92 98 99 93 93 94 93 91 92 83 69 88 97

GFSNE_925_rhum_066.txt.gz
RH
93 90 83 76 78 97 100 100 92 97 98 99 100 96 93 90 85 80 82 96 92 90 90 86 84 93 100 99 99 98 94 97 97 99 98 99 95 98
90 89 94 100 100 100 100 99 99 93 94 98 100 100 99 94 88 84 83 88 100 98 90 82 82 92 90 92 95 98 99 100 100 100 100 100 97 100
87 92 97 98 99 98 96 95 92 91 95 100 99 100 99 98 89 86 85 85 88 94 100 95 84 85 84 82 86 91 93 96 98 99 99 98 96 96
94 94 94 91 92 91 92 92 94 90 91 99 100 100 98 91 88 84 84 83 78 83 87 79 74 74 78 85 80 78 81 77 77 84 88 88 91 91
91 93 93 91 91 91 89 91 90 90 96 94 100 98 94 91 83 83 85 78 75 69 59 59 58 62 66 76 79 82 85 92 93 87 86 86 87 90
90 90 90 91 91 90 91 92 94 95 95 97 98 93 90 90 85 79 71 64 63 62 52 47 51 44 42 51 50 59 79 87 88 91 91 89 87 87
93 93 94 95 93 92 95 95 95 94 95 92 90 90 87 89 84 72 63 54 52 56 49 38 34 39 37 44 45 39 35 37 51 79 84 88 88 87
96 96 96 97 94 98 95 92 90 89 87 85 84 83 81 80 72 65 62 59 56 64 48 44 48 46 47 50 53 55 53 48 39 28 29 40 57 72
100 99 98 98 96 94 96 91 88 88 90 88 85 84 79 68 64 62 61 66 61 58 60 39 53 52 55 56 56 61 55 52 51 57 68 76 90 96
100 99 93 90 88 83 82 70 57 55 52 59 66 62 63 63 64 61 64 64 67 64 55 50 50 54 54 57 68 62 61 68 77 70 70 71 70 87
97 94 93 81 65 64 59 54 57 64 58 52 60 64 62 58 56 62 68 65 65 61 63 64 62 59 66 67 68 71 69 75 85 85 83 91 92 88
94 73 66 66 79 81 54 51 51 54 59 56 59 58 44 49 44 35 39 62 69 76 72 74 71 65 60 70 69 68 65 68 66 68 70 66 68 75
54 59 66 78 92 86 65 58 54 50 58 60 58 50 41 44 48 43 45 48 54 66 83 77 80 75 69 69 56 60 66 66 55 48 52 59 65 84
42 42 43 70 84 82 79 60 64 71 57 64 60 45 43 48 52 56 63 70 68 66 72 77 74 74 73 74 72 63 63 52 46 45 47 63 59 61
42 41 43 53 77 77 82 83 83 74 61 55 50 44 43 49 56 65 77 84 76 74 72 71 73 83 90 90 76 77 87 57 60 75 58 59 68 68
55 49 54 62 72 67 62 61 77 81 68 55 47 44 49 58 68 78 70 75 83 74 76 84 80 82 84 88 93 92 88 88 55 58 74 76 74 74
88 67 68 68 70 70 63 54 53 62 58 52 47 49 57 68 74 72 71 76 84 82 80 81 72 70 77 82 94 79 73 79 68 79 88 86 74 70
97 85 74 66 66 69 76 64 50 46 42 44 47 50 53 60 67 70 71 72 78 81 83 79 67 72 70 56 52 64 77 78 78 82 87 98 84 68
96 94 90 77 60 64 63 68 59 50 44 43 42 44 48 54 65 74 76 80 81 81 82 77 74 87 100 98 72 77 88 87 88 83 85 92 94 81
76 81 73 66 59 54 55 66 62 61 59 53 48 45 46 52 59 64 68 74 73 71 74 72 80 86 95 92 86 82 84 85 89 89 92 92 91 88
70 73 69 64 56 55 57 57 56 60 64 63 58 55 56 60 64 64 64 70 82 84 88 81 70 77 95 98 98 91 85 82 88 93 93 98 98 92
57 55 54 53 50 49 54 54 54 60 63 67 61 59 59 63 66 65 67 68 68 73 72 69 75 90 94 97 94 94 92 85 82 83 94 96 97 90
64 55 47 43 46 78 44 49 52 55 54 52 56 56 60 67 66 70 72 72 73 73 77 82 91 97 100 100 99 97 96 91 90 87 77 68 82 97

GFSNE_925_rhum_069.txt.gz
RH
84 94 97 91 88 74 80 93 99 97 98 100 97 99 94 92 88 82 80 82 87 92 87 86 86 94 99 100 98 98 97 97 94 90 81 89 90 93
88 89 90 91 89 93 100 100 100 100 97 99 100 99 98 94 90 83 81 82 98 97 91 89 92 90 97 98 99 98 98 100 100 99 99 100 100 100
88 85 86 92 97 100 99 99 98 98 98 100 100 100 100 97 91 84 84 89 90 95 99 99 90 84 83 83 85 93 91 89 99 99 100 100 99 97
86 94 95 94 94 96 95 93 93 92 94 99 100 100 100 99 89 85 83 84 83 83 85 80 79 83 97 92 79 75 82 80 80 85 89 93 97 96
94 88 95 95 95 94 93 92 92 92 92 97 100 100 100 94 87 85 86 82 77 73 61 58 58 68 77 91 80 80 80 79 80 73 76 82 86 91
87 87 96 95 94 93 94 92 92 91 94 99 99 98 94 92 86 81 87 70 68 65 56 48 48 43 44 63 49 50 69 85 87 89 88 84 82 82
93 94 95 96 96 93 92 92 95 95 97 98 95 94 93 93 88 84 72 64 53 52 48 41 35 35 36 42 42 35 32 33 41 68 80 85 87 87
97 96 96 97 95 92 93 94 94 94 91 91 90 86 85 83 82 73 64 57 54 60 48 41 45 42 43 45 51 54 54 48 37 30 30 36 49 64
100 100 100 100 99 96 97 93 91 88 89 84 84 83 82 80 76 70 62 58 56 58 54 41 50 49 52 51 54 61 55 57 53 54 60 57 60 69
100 100 98 95 92 90 90 83 76 66 69 81 82 84 76 68 64 60 57 58 63 61 53 47 49 53 52 55 78 63 64 72 80 72 72 67 68 79
100 99 93 90 89 82 69 60 56 57 55 54 56 60 62 63 63 63 64 71 65 62 60 61 58 56 64 68 73 72 67 72 88 87 86 94 90 83
94 93 95 83 65 83 53 54 54 58 58 53 56 49 43 49 71 44 45 56 64 70 65 71 67 61 61 69 68 66 66 65 66 65 64 61 63 66
95 83 68 85 84 89 71 56 54 48 60 56 58 56 48 40 46 43 46 51 53 59 78 72 74 66 61 61 62 61 61 63 61 50 46 51 60 86
44 45 51 69 93 90 86 60 59 55 58 67 61 50 42 41 49 54 56 64 62 59 62 73 67 66 65 65 60 59 64 62 50 44 47 50 60 55
41 40 40 43 82 83 82 76 82 71 64 58 58 50 42 42 48 56 61 74 76 68 68 71 74 74 80 79 67 67 70 54 52 49 65 55 56 62
63 47 47 46 70 74 71 80 81 84 78 62 52 46 44 48 56 61 76 70 74 78 75 82 86 80 79 83 89 85 81 84 58 59 58 64 70 68
75 69 62 70 74 79 71 62 53 64 82 76 59 49 45 53 63 73 77 72 82 76 77 81 84 71 63 75 89 72 65 66 57 67 80 74 66 63
98 90 76 63 63 63 64 62 58 57 56 58 54 52 49 54 60 71 72 73 74 73 76 79 81 67 61 43 41 50 65 70 70 83 90 91 74 68
98 98 89 79 67 65 58 58 58 52 47 48 45 44 46 49 56 65 72 75 77 78 76 79 82 74 98 96 50 63 81 80 87 86 83 85 84 72
85 94 91 83 73 68 58 53 52 60 58 54 49 46 45 46 53 61 67 75 76 78 80 76 73 67 84 84 78 79 84 88 87 85 86 84 86 77
78 84 78 67 60 58 53 50 49 53 55 60 60 55 50 47 49 53 59 70 80 78 76 66 52 68 82 95 100 95 88 83 84 88 93 97 95 89
62 64 66 63 58 55 51 49 52 62 59 61 63 62 59 58 57 59 64 67 66 81 77 71 69 72 86 100 96 94 92 89 82 79 88 97 97 94
61 54 50 48 47 48 51 51 55 59 58 55 56 60 62 64 60 64 67 68 71 70 70 73 78 95 95 96 98 100 99 94 92 86 73 68 69 89

GFSNE_925_rhum_072.txt.gz
RH
81 84 91 94 99 97 96 81 88 94 98 100 92 98 97 94 95 91 84 86 95 98 100 86 86 90 100 99 98 95 95 98 97 94 83 93 89 96
91 92 91 91 93 96 95 90 98 100 96 99 99 100 100 100 96 91 86 82 87 98 92 84 86 91 97 96 99 96 97 99 99 95 98 90 98 95
92 92 92 89 93 97 98 100 100 99 99 100 100 100 100 100 96 91 85 81 86 93 100 93 86 94 94 86 85 95 90 96 98 99 100 99 98 100
89 95 88 82 92 96 97 96 95 93 95 99 99 100 100 100 98 89 85 81 88 86 87 83 83 86 100 96 83 77 82 81 86 90 97 98 100 100
86 94 91 92 97 97 97 95 94 94 94 99 100 100 100 100 95 91 88 84 82 77 68 67 70 77 86 92 81 81 77 74 74 76 79 85 90 96
83 87 85 94 99 98 97 96 95 94 92 96 100 100 99 99 90 86 88 80 79 70 62 53 48 44 56 73 53 52 69 83 83 81 79 76 79 84
90 91 92 95 99 99 97 94 93 95 96 100 100 99 98 96 90 86 82 75 65 59 53 46 39 37 41 46 44 40 35 34 45 73 79 80 81 80
96 96 97 99 99 99 96 96 96 97 97 97 94 92 93 88 85 83 74 62 47 53 51 43 41 42 41 45 64 55 52 50 35 28 30 36 46 56
100 100 100 100 100 100 99 97 97 96 94 92 84 84 83 78 82 80 68 56 48 52 47 42 49 50 52 53 58 64 70 71 59 57 59 58 58 58
99 100 100 100 98 95 92 89 86 84 84 85 87 88 86 83 77 70 60 55 56 59 51 47 49 55 54 60 86 77 78 80 77 72 67 69 66 70
100 100 99 95 92 92 85 79 61 56 56 53 58 66 65 65 64 57 56 61 61 60 58 57 55 58 62 74 81 78 70 78 90 91 93 84 78 62
100 100 98 91 92 91 62 57 56 59 60 56 66 68 73 82 56 48 49 58 53 65 62 67 66 60 68 71 73 67 65 64 66 66 64 60 58 56
93 93 94 93 67 84 76 55 49 48 60 54 54 52 45 43 47 40 34 40 50 53 66 68 67 64 58 63 70 69 65 62 63 59 50 50 55 61
84 87 75 66 92 92 95 63 56 53 59 59 58 53 45 38 42 48 48 48 48 46 56 64 63 64 60 58 54 55 58 59 62 56 48 50 51 55
39 41 45 52 94 90 88 80 78 73 58 64 61 54 44 39 49 57 56 70 73 70 62 64 70 69 67 67 64 62 57 51 48 44 45 55 57 52
72 51 44 45 55 83 82 86 87 82 72 63 51 50 47 43 45 52 62 71 72 69 71 76 79 79 78 72 77 62 64 70 52 54 61 56 54 61
76 67 61 70 63 79 77 70 78 78 83 79 73 58 46 47 52 60 70 74 71 72 77 79 80 79 72 62 67 53 50 57 47 54 65 67 63 60
86 76 69 64 67 70 76 70 64 55 53 70 79 69 53 47 51 68 78 79 70 72 74 76 82 84 65 38 38 47 56 57 63 74 79 79 64 59
90 95 88 84 67 61 60 60 57 54 51 53 52 49 48 50 58 65 72 75 76 74 73 78 82 85 88 91 42 57 65 77 83 86 83 84 80 66
99 100 100 91 85 75 66 62 59 54 61 59 54 47 44 47 53 57 63 69 72 76 78 78 78 78 78 69 63 77 88 84 84 84 87 84 80 68
95 94 88 78 69 65 62 59 56 49 51 58 58 52 48 48 47 46 50 61 70 76 81 75 50 54 64 78 90 86 82 96 89 83 90 98 97 86
83 83 79 68 61 55 50 52 55 56 55 54 58 59 59 57 53 50 51 56 66 82 74 68 75 74 85 92 90 90 93 92 86 79 85 98 97 96
96 73 66 58 52 51 54 57 57 54 52 55 58 54 58 64 61 59 57 60 64 66 67 74 77 79 80 93 96 97 96 96 94 84 74 68 68 80

GFSNE_925_rhum_075.txt.gz
RH
69 77 80 76 89 99 98 100 96 82 85 97 93 93 96 95 92 90 88 88 89 89 99 90 84 86 99 99 99 90 96 95 90 89 81 82 84 90
76 85 86 86 89 93 99 100 100 99 92 95 99 99 100 100 99 96 92 92 90 88 95 91 85 91 99 99 84 85 91 100 98 93 98 81 94 92
79 87 89 91 89 88 93 97 100 100 100 100 100 100 100 100 100 100 92 90 91 90 98 94 94 98 93 85 85 95 87 88 99 98 99 99 97 99
72 84 92 90 86 84 94 99 99 99 99 99 99 100 100 100 100 98 90 87 89 88 88 85 87 89 100 94 86 80 86 81 83 94 99 100 98 99
72 78 90 96 94 89 96 97 97 97 96 99 100 100 100 100 100 97 92 88 85 82 79 76 75 81 93 88 87 80 78 79 78 77 84 97 99 100
76 80 84 84 90 96 98 98 96 96 97 99 100 100 99 100 100 94 92 88 82 76 68 60 54 47 74 71 54 55 76 82 82 81 75 77 84 89
81 84 86 88 94 100 100 99 99 98 98 99 100 100 100 100 98 88 89 82 77 72 66 56 46 41 44 46 44 39 36 43 72 82 83 82 79 74
91 94 94 97 98 99 100 99 98 98 99 100 100 99 97 94 92 87 83 78 70 63 54 46 40 40 41 47 68 54 49 46 36 42 56 64 67 71
96 96 98 98 100 100 100 100 99 98 97 95 93 91 87 85 81 83 79 68 58 50 52 51 46 49 50 52 60 64 76 92 87 69 59 47 42 41
96 99 100 100 100 100 95 91 88 86 85 86 87 83 81 80 82 82 77 64 55 51 48 56 49 57 54 62 83 91 89 86 86 89 83 78 79 66
98 99 99 99 98 97 93 88 79 64 51 50 72 86 90 85 80 70 64 69 66 63 52 52 53 58 58 79 85 89 79 91 92 96 99 90 80 65
97 99 99 97 93 99 88 78 66 59 60 69 78 75 69 67 62 57 50 52 63 68 54 63 60 58 74 73 79 72 71 76 78 76 70 64 56 53
94 98 98 99 87 91 83 53 49 50 61 56 55 50 60 72 60 41 38 39 41 52 54 62 72 63 57 77 71 70 67 66 64 61 56 50 49 46
89 90 92 92 97 84 94 70 53 51 59 59 56 55 49 44 46 42 41 45 44 39 67 66 58 58 56 68 64 59 64 60 60 60 59 51 48 46
63 65 79 75 81 91 93 85 76 68 58 66 63 55 46 39 44 55 55 60 66 65 61 60 61 57 57 58 70 57 55 51 49 50 47 47 50 52
63 41 40 44 57 91 93 96 84 73 61 56 56 53 52 44 46 50 62 69 73 78 71 68 68 67 67 69 67 65 55 56 52 60 57 57 54 49
92 72 60 65 60 72 89 87 88 86 82 74 69 57 50 46 48 52 64 67 75 80 80 76 76 79 72 66 61 46 52 50 42 48 51 58 56 58
95 80 71 66 70 68 78 81 77 80 80 79 79 74 62 49 51 59 65 74 84 76 76 77 77 82 70 40 40 61 55 51 51 59 67 78 73 56
97 83 77 69 67 64 64 69 69 60 54 54 62 73 74 58 58 65 73 80 88 77 72 74 77 86 78 67 46 39 53 53 71 75 74 76 83 68
99 91 86 80 72 63 57 56 56 57 59 58 54 56 60 60 58 68 66 68 77 74 75 76 80 78 83 67 65 77 70 76 80 95 98 82 73 62
100 100 98 89 86 77 73 68 59 55 56 55 57 58 54 52 51 51 50 54 59 70 88 80 54 59 67 73 78 83 66 70 91 94 96 99 96 88
100 100 100 94 87 72 65 64 64 67 64 57 54 52 55 52 49 46 48 54 80 84 65 60 63 65 82 80 78 79 82 98 87 89 98 97 98 90
99 99 96 89 83 73 66 64 58 55 56 52 50 50 57 59 57 56 54 52 52 58 70 90 81 82 80 82 89 94 98 99 98 97 90 71 70 75

GFSNE_925_rhum_078.txt.gz
RH
73 80 93 94 96 98 100 93 81 85 65 66 86 97 100 100 99 92 91 89 92 89 89 78 76 83 94 98 94 93 89 90 98 86 83 78 82 87
76 85 92 94 97 96 100 100 99 98 90 84 98 94 99 100 99 98 95 93 95 89 83 86 81 90 100 97 94 81 73 95 99 97 92 83 77 86
71 83 93 92 89 88 91 96 98 99 96 98 99 99 100 100 100 100 99 97 94 92 97 91 89 100 100 90 84 82 79 82 98 99 99 100 85 90
68 76 87 94 96 95 99 94 100 100 100 100 100 99 100 100 100 100 99 94 91 90 91 86 90 99 100 93 93 82 85 82 80 94 100 100 100 100
80 84 82 88 90 87 89 89 100 100 99 100 100 100 100 100 100 100 97 91 89 92 92 86 86 84 97 94 84 79 76 75 80 77 89 100 100 100
79 83 85 88 91 86 92 98 100 100 99 100 100 100 100 100 100 99 99 94 86 83 79 68 63 56 79 71 55 56 75 80 78 76 75 82 95 99
86 87 82 91 85 90 100 100 100 100 100 100 100 100 100 100 99 98 96 90 87 80 72 65 59 50 52 53 46 37 38 50 81 85 82 76 78 84
89 92 93 82 85 91 98 100 99 100 100 100 100 99 99 99 99 93 88 84 79 78 70 59 53 55 56 67 58 45 43 41 40 62 79 78 81 78
96 96 99 99 100 99 100 98 99 98 98 100 99 98 95 92 90 91 85 84 73 65 66 50 57 54 57 44 51 57 64 82 84 66 50 42 42 44
99 99 100 96 99 99 99 96 92 89 91 92 93 90 88 82 84 85 85 78 71 57 49 53 57 55 62 64 60 90 86 81 83 90 88 87 91 81
100 100 97 99 99 99 95 89 87 83 76 67 76 83 86 87 84 83 83 76 60 56 50 54 62 62 68 82 92 93 79 91 93 98 99 87 69 63
99 100 99 96 99 98 94 89 81 72 72 80 85 78 82 84 81 78 83 85 64 62 63 66 67 63 70 81 91 80 87 98 97 93 83 73 61 67
94 100 100 99 96 99 91 81 72 64 71 69 65 70 80 87 79 60 63 68 81 82 61 74 77 68 92 83 80 78 73 78 72 68 63 58 50 48
91 92 92 98 99 96 97 80 56 53 66 61 55 48 48 64 73 50 38 40 44 43 51 57 70 87 84 76 67 74 72 67 63 65 64 56 52 48
90 88 90 89 93 99 90 82 72 71 64 61 55 56 66 73 58 45 45 46 46 46 63 71 64 57 59 86 75 72 68 64 55 59 59 58 69 73
97 82 67 86 94 86 86 98 78 72 61 60 57 65 69 46 66 62 82 77 90 80 63 58 62 66 67 66 79 85 72 84 80 71 69 72 68 67
99 75 64 64 67 75 90 93 85 78 72 62 63 63 63 71 73 79 84 91 86 81 90 65 67 72 75 76 85 79 70 70 77 82 68 68 74 73
100 88 64 54 57 58 78 88 86 86 83 84 80 71 61 70 75 86 85 88 82 80 82 94 96 97 87 56 46 77 67 74 82 77 66 92 90 88
100 98 86 68 60 63 66 78 86 87 91 95 88 86 80 78 77 82 85 84 86 84 85 94 97 92 80 68 69 35 85 86 89 88 91 95 94 96
100 98 90 81 72 67 70 76 79 83 83 79 84 81 79 82 85 83 86 85 86 87 89 97 97 95 84 71 66 85 46 80 93 91 94 94 89 83
100 100 95 91 88 78 71 70 71 80 70 65 69 67 71 76 83 82 84 84 83 83 84 84 79 57 83 82 75 67 72 47 61 97 100 100 95 86
100 100 100 100 99 97 80 72 74 81 72 63 65 66 68 67 76 77 78 79 77 76 79 84 82 76 85 91 73 67 75 89 83 86 100 100 98 86
100 100 100 100 100 98 87 81 81 82 78 74 71 72 70 75 71 67 72 72 73 80 85 86 95 98 93 92 89 86 87 93 93 92 93 96 98 98

GFSNE_925_rhum_081.txt.gz
RH
96 92 84 86 89 88 91 89 81 80 72 60 81 83 90 92 94 95 94 92 94 93 90 84 76 74 80 100 99 87 74 78 89 98 94 82 78 82
93 82 89 85 89 92 91 92 91 88 86 82 93 89 93 100 100 99 96 94 97 95 92 86 81 81 90 100 100 99 80 72 93 100 98 96 80 77
87 87 87 83 87 90 92 92 90 90 96 95 96 94 98 100 100 100 100 98 97 98 94 90 88 99 100 100 98 89 80 76 84 96 96 90 87 84
81 82 82 89 91 89 89 91 90 92 93 89 99 99 99 100 100 100 100 99 98 96 94 87 85 96 99 97 98 85 82 84 81 83 99 99 100 97
75 78 79 86 88 89 90 88 87 89 96 100 100 100 100 100 100 100 100 98 94 94 93 89 86 84 90 89 81 76 77 75 79 79 86 100 100 99
72 75 78 81 85 86 85 86 86 92 100 100 100 100 99 99 100 99 100 98 92 93 92 82 74 65 74 66 50 50 66 76 78 78 77 82 98 99
72 77 79 82 82 83 85 86 89 93 100 100 100 100 100 100 99 99 100 97 95 88 82 69 66 60 60 55 50 41 34 45 78 83 78 75 76 88
78 84 85 83 79 79 81 93 100 99 100 100 100 99 99 98 98 99 98 92 89 81 79 71 65 60 56 52 58 48 41 38 42 72 79 78 76 74
82 85 90 96 99 99 99 99 97 97 99 99 99 98 96 94 95 98 93 88 82 72 74 65 58 54 56 50 47 50 61 77 75 54 46 50 54 59
92 94 94 98 100 99 99 98 96 94 94 95 97 95 95 89 92 89 88 84 69 66 57 55 54 54 57 55 52 80 80 83 87 88 82 88 61 53
98 98 94 96 99 99 98 97 92 86 84 84 84 85 87 87 86 87 86 80 70 64 53 53 55 60 62 79 92 92 77 90 93 98 95 71 64 67
98 96 96 99 94 99 99 94 87 81 76 72 52 65 84 89 92 85 86 83 66 61 59 55 61 61 69 80 88 86 83 96 97 93 82 70 61 60
94 92 96 99 97 99 99 92 84 76 74 73 73 80 88 87 82 80 82 82 76 80 61 56 68 64 93 80 86 80 85 86 84 79 65 58 52 49
92 90 96 97 99 99 100 90 80 66 68 66 61 60 71 81 80 61 56 58 56 50 45 60 70 74 77 80 75 76 78 76 70 64 57 53 48 46
94 90 89 90 99 99 99 94 86 57 64 64 57 50 48 65 74 54 42 40 42 41 46 58 54 67 69 86 74 65 75 69 68 65 61 56 52 53
99 93 88 88 92 99 96 94 84 69 62 64 57 59 67 71 64 50 50 51 59 63 59 62 58 54 55 60 74 82 60 76 68 59 58 56 51 54
100 100 98 100 100 99 92 92 92 74 70 60 58 65 70 66 74 73 79 78 86 88 77 61 60 62 58 63 71 65 83 77 79 69 64 60 53 50
100 99 95 76 77 81 83 87 88 86 76 64 62 64 64 70 75 82 85 84 83 80 85 88 72 78 70 53 55 64 67 66 70 72 68 65 55 54
100 100 96 75 68 71 71 82 91 89 84 80 77 72 64 66 77 81 83 85 86 82 82 88 93 89 93 91 69 40 64 77 73 79 72 80 82 84
100 100 100 100 100 98 80 73 87 88 90 90 94 90 79 72 82 86 82 84 85 87 87 91 91 90 85 84 69 71 42 68 74 81 91 94 93 92
100 100 100 100 100 99 96 79 79 88 91 96 100 98 92 88 86 82 78 83 83 88 92 94 77 73 83 84 77 59 42 38 51 82 86 96 100 92
100 100 100 100 100 99 99 98 88 85 88 85 88 88 85 80 84 81 83 82 85 87 85 82 81 82 89 81 78 69 68 76 64 58 62 87 98 95
100 100 100 100 100 99 99 99 98 86 84 78 82 80 77 80 77 77 75 74 77 81 81 85 91 88 80 79 84 80 77 76 79 88 90 87 97 100

GFSNE_925_rhum_084.txt.gz
RH
99 100 100 96 93 91 87 81 77 87 83 71 80 84 84 85 89 92 93 93 93 92 92 89 86 82 82 78 96 99 99 85 91 92 97 99 90 73
100 99 98 91 86 91 89 81 82 88 93 86 91 93 93 92 97 100 98 95 96 97 95 90 85 80 81 81 98 98 96 84 80 94 99 90 96 81
99 96 92 89 88 88 89 87 88 90 98 91 90 93 98 96 99 99 99 98 98 96 96 93 86 83 84 88 100 97 85 80 76 85 98 99 92 78
95 93 89 89 87 83 86 91 90 86 89 96 96 97 98 100 98 99 99 100 100 100 98 93 87 89 90 93 95 85 86 82 79 78 91 99 98 87
86 77 74 81 87 90 90 90 92 89 82 93 96 96 99 99 99 99 100 100 99 96 97 90 86 82 91 85 80 72 75 77 78 78 77 94 100 100
77 75 74 76 79 83 87 89 88 91 85 92 100 100 100 100 100 100 100 100 96 97 95 90 85 76 79 67 54 41 52 67 74 76 79 78 95 100
72 71 73 75 79 84 84 86 84 83 90 99 100 100 100 100 99 100 100 99 98 92 92 89 81 73 63 62 55 42 32 36 62 79 76 74 76 90
69 72 74 75 76 79 85 88 87 86 87 97 100 99 99 99 98 98 99 99 97 94 90 80 68 65 61 58 57 49 36 35 37 68 80 77 72 73
75 77 79 78 79 78 79 81 91 98 97 98 100 98 97 93 94 98 99 96 90 76 84 76 67 60 57 55 51 48 52 64 62 50 56 65 68 70
77 80 84 88 90 96 95 99 100 96 94 96 98 94 92 92 92 92 92 94 80 72 75 65 60 55 58 50 50 76 80 78 90 76 80 57 57 65
83 87 90 93 93 98 97 100 99 94 90 87 89 90 90 90 88 92 92 85 75 71 63 52 54 58 58 66 80 95 78 88 97 98 98 67 62 60
92 94 97 94 93 100 100 99 94 89 85 81 79 80 85 88 88 88 84 85 75 68 62 48 56 56 65 85 92 86 79 92 99 100 90 67 59 55
96 91 96 94 95 100 100 95 89 86 81 76 68 63 76 91 96 89 82 82 79 64 56 50 59 61 87 76 90 82 82 92 88 90 77 62 54 55
97 96 93 92 99 100 100 96 92 88 77 76 77 77 88 86 85 84 83 86 86 73 50 46 52 54 78 81 78 80 79 81 74 74 65 56 50 46
98 93 91 90 90 99 100 99 93 76 71 71 71 64 65 82 82 68 64 64 62 59 45 50 49 50 61 64 71 70 76 69 65 67 62 56 53 49
100 98 94 90 90 98 100 100 98 85 77 64 62 58 51 68 73 62 46 43 44 56 56 62 56 53 68 73 70 57 63 62 66 68 65 62 55 52
100 100 99 100 98 100 100 100 100 89 71 62 64 61 61 63 70 58 45 51 60 64 65 69 66 62 58 52 56 59 68 66 64 58 59 55 49 47
100 99 100 100 100 100 100 100 99 93 76 68 64 62 68 71 73 76 72 67 85 86 71 67 66 71 66 55 55 55 63 82 76 72 67 67 47 36
100 100 100 100 100 100 100 98 100 97 89 74 62 63 64 65 81 83 89 87 77 85 84 80 73 67 98 91 68 52 62 68 64 68 71 72 57 55
100 100 100 100 100 93 91 99 98 95 91 88 72 64 65 63 79 83 84 86 85 85 84 86 80 66 68 75 65 60 45 59 67 68 69 79 86 85
100 100 100 100 100 96 96 99 100 99 99 95 85 81 73 68 80 83 75 84 81 86 89 91 75 63 70 74 71 67 56 40 42 50 71 93 94 87
100 100 100 100 100 99 99 99 99 99 99 100 99 98 91 84 83 84 78 82 85 84 85 76 79 92 93 87 73 60 56 57 60 54 61 58 72 94
98 100 100 100 100 99 99 99 99 100 100 100 100 100 100 100 92 83 78 76 81 82 86 88 86 88 81 81 76 66 68 69 71 72 69 73 78 84

GFSNE_925_rhum_087.txt.gz
RH
100 100 99 98 96 97 99 90 84 89 83 78 82 89 86 85 83 80 85 89 91 93 96 93 91 86 83 81 80 92 98 100 100 99 98 91 100 98
99 100 100 100 100 99 96 87 86 75 84 86 91 90 90 90 89 89 93 94 93 95 98 96 92 87 84 80 79 92 100 99 98 97 100 98 100 94
100 100 100 100 97 90 88 93 91 87 94 96 94 96 94 95 95 99 97 94 92 98 100 97 93 90 87 89 83 99 98 89 83 77 91 100 96 95
100 100 100 99 92 89 91 89 88 89 91 96 95 97 99 100 99 99 99 94 99 99 100 100 94 95 96 88 84 80 79 81 80 77 77 88 100 98
100 100 98 96 93 89 86 84 88 89 91 88 94 96 98 98 100 100 99 100 99 100 100 98 92 88 92 89 83 68 66 73 77 75 74 78 96 99
100 98 92 88 81 80 83 87 91 96 94 92 95 96 96 98 100 99 97 99 99 99 100 96 92 88 85 77 67 51 41 54 69 73 74 74 86 99
94 89 82 79 80 80 83 83 88 91 96 98 100 100 100 100 98 99 100 100 100 96 98 97 93 88 77 78 68 58 43 32 49 79 74 73 74 93
85 82 78 80 79 80 85 87 87 90 92 92 99 99 98 93 94 99 100 100 99 98 94 92 90 73 68 65 62 58 44 35 33 64 81 76 70 75
82 81 78 76 75 75 78 84 87 90 86 84 91 98 96 91 90 100 100 98 94 85 96 86 82 69 65 60 56 48 45 56 59 53 71 74 74 72
78 76 76 76 79 75 79 82 85 92 89 88 91 90 93 89 87 86 91 97 96 83 88 74 70 64 59 57 48 53 72 70 82 85 80 71 71 64
83 81 80 81 80 86 91 91 91 99 98 92 92 92 91 93 92 96 98 97 78 71 78 62 61 58 57 55 50 95 86 86 96 98 98 92 92 63
85 86 85 88 89 92 93 100 100 98 96 94 92 91 89 89 90 90 91 92 76 77 70 64 55 54 62 71 81 95 84 94 96 94 89 70 64 63
94 94 95 90 94 97 92 98 97 95 91 87 83 80 84 88 96 93 90 87 82 74 64 64 57 59 62 86 96 92 78 93 98 98 71 63 62 62
100 97 94 92 92 94 95 98 99 99 90 85 80 73 71 85 99 96 86 83 81 82 78 53 46 53 78 81 85 84 88 93 89 84 79 61 54 54
100 99 98 95 95 96 94 100 99 100 88 85 83 77 66 62 87 90 88 87 87 88 76 56 46 48 60 59 72 80 82 77 78 75 72 58 52 52
98 100 99 98 100 100 100 100 100 98 90 82 78 74 69 81 81 76 78 78 76 79 70 56 59 53 58 64 56 59 64 57 66 71 68 62 60 56
99 100 100 100 100 100 100 100 100 98 88 78 77 72 66 74 83 81 66 61 51 66 73 72 74 63 79 67 73 66 54 59 56 62 69 62 54 47
100 100 100 100 100 100 100 100 100 100 99 87 79 68 71 76 79 76 63 52 55 61 56 67 77 74 66 58 54 49 60 60 62 65 62 61 45 39
100 100 100 100 100 100 100 100 100 100 100 99 80 72 74 71 82 83 75 65 74 76 70 59 69 65 94 85 62 54 56 56 75 78 72 67 50 40
99 100 99 100 100 100 100 100 100 100 100 99 90 75 76 74 90 91 89 92 83 84 92 84 71 64 55 69 53 58 48 62 66 64 64 67 61 64
100 100 100 100 100 100 100 100 100 100 99 99 99 96 83 83 86 85 83 90 87 83 92 92 72 57 59 64 62 63 58 42 51 54 58 73 92 93
97 100 99 100 100 100 100 100 100 100 100 100 100 98 87 77 82 82 85 87 91 85 83 84 77 82 77 76 69 57 51 49 47 56 60 58 61 91
94 98 99 100 100 100 100 100 100 100 100 100 100 99 96 90 86 77 78 79 82 89 90 90 87 88 88 82 83 67 64 56 61 68 62 56 56 56

GFSNE_925_rhum_090.txt.gz
RH
97 100 98 99 100 100 96 91 95 99 97 90 88 88 86 86 85 84 83 84 86 87 98 98 100 94 89 87 86 87 87 89 95 99 100 98 97 96
91 99 100 100 99 99 98 95 93 79 87 89 88 93 92 88 88 88 88 88 91 90 88 91 93 92 90 87 81 76 82 96 100 99 99 99 97 99
99 100 100 100 100 100 100 100 98 86 86 94 90 92 94 92 91 91 90 91 90 90 88 87 94 93 91 90 84 77 76 86 99 99 98 100 96 97
98 100 100 100 100 99 100 99 93 91 87 96 98 100 100 100 98 98 96 95 91 90 91 99 98 96 99 96 86 74 71 78 81 80 79 80 79 95
100 100 99 100 100 100 95 91 94 91 90 88 100 100 100 100 100 100 100 99 98 97 100 100 99 93 96 94 87 75 62 66 67 73 77 76 74 91
100 100 100 100 100 99 98 93 92 93 95 97 98 100 100 100 100 98 97 99 95 96 99 100 99 92 89 90 79 67 55 42 44 61 73 78 74 88
100 100 100 100 100 99 94 89 89 95 100 100 100 100 100 100 99 94 99 98 99 99 100 100 98 93 89 90 83 73 60 49 34 44 71 74 74 85
92 95 96 96 95 92 90 89 88 93 100 100 100 99 100 92 89 91 98 100 99 98 99 98 99 94 90 77 70 66 60 44 32 30 68 82 80 73
88 90 88 86 86 85 85 86 84 89 88 86 98 97 90 83 86 97 100 98 96 90 99 94 94 92 78 68 66 60 48 44 43 44 65 77 84 75
83 83 85 85 82 83 84 90 91 90 92 95 90 85 83 81 86 84 85 94 98 94 89 89 84 80 70 63 59 51 53 59 65 83 85 82 84 88
87 82 85 84 82 83 84 86 88 89 93 96 92 88 88 93 90 94 97 100 89 87 90 74 70 68 64 60 54 52 83 82 89 99 98 91 87 90
94 89 85 87 84 86 86 86 96 90 98 100 100 97 94 92 90 88 86 99 84 80 82 79 63 63 61 60 57 78 92 94 92 98 98 80 72 70
100 99 94 90 89 90 91 92 91 90 96 100 99 97 96 96 97 93 93 91 88 78 73 75 64 62 46 85 84 94 82 89 92 99 89 69 63 61
100 100 99 96 96 95 97 99 96 96 99 99 93 90 89 90 93 98 96 96 93 82 72 68 61 57 59 88 92 92 86 82 96 97 84 66 63 63
94 99 100 99 98 100 99 100 100 100 100 100 95 89 82 76 88 100 99 97 90 87 81 83 64 48 56 51 71 86 87 85 90 90 83 75 57 52
85 93 99 100 99 99 100 100 100 100 99 100 95 89 80 80 92 98 98 96 93 88 84 81 63 54 53 63 52 68 72 62 77 80 73 72 62 56
86 93 100 98 100 100 100 100 100 100 100 99 96 92 85 85 85 89 91 95 91 98 97 87 78 70 62 54 66 57 63 63 54 70 72 68 62 57
83 82 98 100 100 100 100 100 100 100 100 100 100 99 95 85 89 84 80 81 79 75 92 91 87 82 83 77 71 64 60 58 58 59 68 68 56 47
81 78 95 100 100 100 100 100 100 100 100 100 99 99 98 96 91 94 88 79 76 63 63 67 87 74 93 83 61 57 48 56 62 68 63 62 50 37
80 97 99 100 100 100 100 100 100 100 100 100 100 99 98 98 95 94 92 88 75 78 76 72 83 71 56 69 51 63 51 57 61 72 76 72 61 52
74 90 98 100 100 100 100 100 100 100 100 99 99 99 98 98 96 92 93 96 85 82 90 93 61 49 54 50 56 71 72 60 66 59 68 70 74 70
84 81 95 100 100 100 100 100 100 100 100 100 100 99 98 98 97 94 95 96 92 89 81 77 79 84 70 64 56 58 63 65 64 61 61 45 48 84
86 77 90 98 99 99 100 100 100 100 100 100 100 99 99 99 98 97 94 95 91 95 86 90 91 94 83 74 63 56 55 55 58 64 55 51 51 57

GFSNE_925_rhum_093.txt.gz
RH
92 98 100 100 100 100 100 100 94 99 98 99 100 97 94 98 94 88 80 80 79 82 83 90 95 96 96 91 88 87 87 79 75 98 100 99 96 96
96 96 100 100 100 100 100 100 100 91 96 92 97 99 97 97 93 89 85 84 83 86 88 92 94 91 94 92 88 85 77 73 84 100 99 100 97 99
100 100 100 100 100 100 100 100 100 94 87 100 96 99 100 99 96 94 92 89 90 91 90 88 89 87 91 93 89 85 78 73 71 98 100 100 100 100
99 99 99 100 100 100 100 100 100 99 95 99 100 100 100 100 98 96 94 95 95 93 90 91 87 87 94 94 92 87 78 68 67 72 78 78 72 77
100 100 99 100 100 100 100 100 100 100 100 92 100 100 99 100 100 100 100 98 93 89 88 91 97 95 96 98 96 88 74 62 58 61 65 64 70 71
99 100 100 100 100 100 100 100 100 100 100 88 99 100 99 100 100 99 100 100 94 94 96 94 100 98 96 97 93 81 68 61 52 42 49 60 67 70
97 98 99 99 100 100 100 100 100 100 100 100 100 100 100 100 100 99 100 96 99 99 97 95 99 98 93 89 92 80 76 64 56 41 33 52 63 70
88 88 93 98 99 99 100 100 100 99 100 99 100 99 99 100 99 99 100 100 99 96 98 95 99 98 95 90 86 83 72 64 52 37 32 66 69 71
90 87 87 90 93 98 100 100 100 97 93 90 100 99 100 92 89 95 97 98 94 84 100 98 99 99 98 94 77 73 67 56 44 44 46 79 79 74
85 91 88 84 84 89 93 99 100 100 98 98 95 88 88 85 86 79 78 89 96 92 92 96 94 95 93 82 72 69 60 55 51 63 79 91 86 75
96 90 94 88 83 85 90 94 94 99 100 100 100 100 99 96 89 88 95 100 99 95 95 89 82 83 78 72 65 60 68 66 71 97 95 98 98 92
90 98 99 100 92 89 94 92 96 91 93 97 100 100 95 92 89 89 88 99 91 90 90 90 72 70 70 68 64 55 87 94 96 93 99 92 76 69
100 96 91 98 100 98 99 96 92 84 86 94 100 100 100 100 99 96 94 87 91 84 84 92 71 70 51 70 72 64 87 83 92 96 100 76 67 65
85 98 93 98 98 100 100 100 99 98 95 96 100 100 100 100 100 99 98 98 96 89 81 80 70 68 58 85 88 88 93 86 92 98 88 78 70 63
80 81 96 96 98 98 99 100 100 100 100 100 100 100 99 97 97 100 100 100 100 98 90 74 72 66 64 52 68 89 98 86 94 99 96 69 61 61
77 80 86 92 96 99 100 99 100 100 99 99 99 99 96 93 95 98 100 100 100 97 89 77 75 76 56 56 50 64 85 76 92 100 98 86 66 56
69 80 81 84 100 99 100 100 100 100 100 100 100 99 98 95 96 99 100 100 98 97 93 90 84 73 60 52 62 58 72 72 69 96 97 88 74 60
69 76 75 75 92 100 100 100 100 100 100 100 100 100 100 99 98 99 100 100 97 97 99 96 91 86 80 70 64 57 61 72 59 84 87 80 67 59
69 76 81 82 91 86 99 100 100 100 100 100 100 100 100 99 99 98 98 94 97 93 97 100 96 86 95 89 70 68 62 62 63 72 83 73 57 49
70 74 75 84 97 99 97 100 100 100 100 100 100 100 99 99 99 98 98 91 88 86 82 88 93 86 66 74 46 58 63 63 62 59 68 69 64 53
80 72 74 78 79 91 100 100 100 100 100 100 100 99 99 99 99 100 98 96 91 92 95 91 62 56 67 53 56 68 81 70 61 54 70 79 78 65
81 77 84 73 71 81 100 100 100 100 100 100 99 100 99 99 99 98 99 97 95 92 88 80 70 85 81 60 52 66 89 88 76 73 69 52 46 69
97 89 74 64 72 83 100 99 99 100 99 99 99 99 98 99 98 98 99 99 99 98 97 98 95 91 74 73 57 55 71 91 83 78 68 63 53 56

GFSNE_925_rhum_096.txt.gz
RH
99 99 99 100 99 100 100 100 98 97 97 99 94 97 100 100 99 98 98 91 92 82 83 84 91 89 89 86 78 84 86 85 78 76 99 100 99 95
100 99 99 99 98 100 100 100 100 99 98 97 99 97 100 100 100 100 97 94 90 81 79 85 91 91 92 85 84 90 87 81 78 79 97 99 100 99
100 100 100 100 100 100 100 100 100 100 98 100 99 99 100 100 100 100 98 93 90 85 84 85 89 85 86 85 91 91 87 83 77 70 72 97 99 99
100 99 100 100 99 100 100 100 100 100 100 99 99 100 100 100 100 100 97 92 91 92 91 90 86 85 86 85 93 93 88 83 71 66 64 64 66 67
100 99 100 100 100 100 99 100 100 100 100 98 100 99 99 100 100 100 100 98 96 98 93 90 89 86 84 93 97 97 90 79 68 62 57 56 59 60
88 97 100 100 100 100 100 100 100 100 100 100 100 99 100 100 100 100 100 100 100 100 97 94 100 96 85 93 100 95 86 70 66 65 60 50 50 56
89 86 87 96 100 100 100 100 100 100 100 100 100 100 99 99 100 99 100 99 100 100 98 98 98 99 90 91 98 91 81 76 69 64 53 41 42 58
90 89 90 86 87 95 100 100 100 100 100 99 99 98 100 99 99 99 100 100 99 99 100 97 96 98 91 93 90 91 88 78 69 60 46 36 49 64
100 96 87 86 89 86 91 96 100 100 100 98 99 98 100 96 98 100 100 99 99 87 99 99 100 100 97 96 94 89 85 74 64 52 42 38 68 71
91 98 98 93 85 90 88 93 98 100 100 100 98 91 89 87 87 82 87 98 98 92 98 99 97 98 98 99 97 86 77 70 58 53 50 69 84 81
88 81 90 98 97 97 96 97 96 100 99 100 100 100 99 97 94 93 100 100 100 99 98 92 91 92 93 94 88 75 74 67 64 84 86 91 98 96
80 82 91 82 87 98 100 100 100 96 97 100 100 100 100 100 100 99 93 100 97 98 94 92 83 81 78 78 78 67 76 97 79 90 93 94 85 84
81 78 81 93 82 86 96 100 100 97 95 97 100 100 100 100 99 99 96 88 94 86 84 94 80 78 67 68 72 66 63 87 92 89 94 88 69 68
80 87 78 76 87 93 91 94 99 100 100 100 100 100 100 100 100 99 96 95 90 82 77 83 80 75 65 81 78 72 73 88 88 90 96 82 71 64
88 78 78 84 88 83 93 98 96 100 100 100 100 100 98 99 100 100 100 100 100 97 91 85 84 75 70 68 74 82 91 92 90 91 98 80 73 65
80 76 73 73 84 85 89 89 98 100 100 99 99 99 100 100 100 100 100 100 100 100 92 84 84 74 70 65 58 65 78 74 89 96 88 84 69 63
87 92 70 73 77 80 90 98 98 100 98 100 100 99 100 100 100 100 100 100 99 100 100 92 82 71 70 65 57 52 72 78 73 90 99 100 85 64
72 97 80 73 74 70 77 85 99 100 100 100 100 100 100 99 99 100 100 100 99 100 99 95 87 78 73 68 57 53 63 79 69 88 100 100 94 74
83 86 83 86 84 80 98 86 90 99 100 100 100 100 100 100 100 99 99 99 99 99 98 98 97 88 96 90 74 63 50 67 70 79 100 99 85 66
73 73 81 85 82 72 84 93 98 97 100 100 100 100 100 99 99 99 99 98 98 98 98 100 100 92 85 84 58 63 64 56 65 62 88 95 76 58
91 89 77 72 72 70 76 73 82 99 98 100 100 99 99 99 100 100 99 100 98 98 98 100 94 95 85 67 62 82 90 77 58 49 64 83 77 70
96 93 89 84 76 74 76 74 87 97 100 100 100 99 99 99 99 98 98 98 99 97 95 93 85 93 93 64 57 80 96 89 76 69 59 48 62 72
96 99 97 96 94 82 66 74 100 100 99 100 100 100 99 99 99 98 98 98 98 98 97 100 97 95 92 75 53 82 93 100 86 83 80 77 59 55

GFSNE_925_rhum_099.txt.gz
RH
88 86 87 87 87 89 93 100 98 96 88 88 88 84 81 84 85 92 100 100 96 91 86 89 94 94 93 91 85 81 81 85 84 79 74 94 99 99
96 96 98 98 92 96 100 94 100 98 95 89 90 87 88 97 98 100 100 100 95 90 89 90 94 93 94 86 86 81 80 86 82 77 78 86 98 97
100 100 100 100 100 100 100 100 100 100 98 99 96 96 94 99 100 100 100 100 96 92 88 92 89 94 93 93 88 86 87 88 83 79 76 69 80 96
99 99 98 99 99 99 100 100 100 100 100 100 97 99 99 100 98 100 100 100 99 99 97 94 93 94 92 86 85 85 90 90 86 77 69 64 62 66
86 94 99 100 99 99 99 100 100 100 100 100 100 100 100 100 100 100 100 100 100 100 99 95 93 91 87 86 85 90 94 92 83 73 66 61 58 55
86 88 89 98 99 99 100 100 100 100 100 100 100 100 100 100 100 100 100 100 100 100 100 100 99 95 94 99 92 90 96 88 76 70 67 65 61 52
59 75 84 87 89 89 98 99 100 100 100 100 100 100 100 100 99 98 100 100 100 100 99 100 99 99 100 100 98 87 94 82 73 70 66 62 55 44
83 96 77 64 80 84 88 88 98 100 100 99 99 97 99 98 100 100 99 100 99 100 100 100 100 100 99 100 95 90 89 83 80 72 65 56 42 38
85 89 88 93 94 87 80 86 88 89 100 100 98 99 99 98 100 100 100 97 96 98 100 100 100 100 99 96 96 94 92 91 83 71 59 44 38 51
68 70 92 90 87 98 100 98 91 90 88 99 100 100 96 95 95 95 100 100 100 97 96 99 100 100 95 97 96 95 93 89 77 64 49 49 63 84
83 86 81 85 94 82 86 97 100 94 88 91 100 100 100 99 96 100 100 100 100 99 100 95 99 100 100 99 99 99 93 83 73 58 73 78 89 97
88 84 80 74 73 87 92 99 94 97 99 92 93 100 100 100 100 97 97 98 99 100 99 95 94 91 89 91 95 92 90 83 77 84 89 88 79 95
86 81 76 82 80 74 79 88 95 96 100 100 98 99 100 100 100 100 93 93 97 96 93 95 92 89 82 84 83 80 77 86 95 93 93 93 80 85
83 82 88 79 76 77 81 76 86 95 99 100 100 100 100 100 98 100 100 99 96 89 86 91 87 84 70 85 84 77 68 86 90 94 88 91 84 70
89 87 82 77 78 78 78 84 81 86 100 100 100 100 96 98 100 100 100 100 100 98 86 90 78 80 79 75 87 91 90 87 90 92 87 84 81 66
76 75 79 82 72 73 79 85 86 100 100 100 99 99 100 100 100 100 99 100 100 100 95 91 85 81 76 72 69 87 86 88 92 93 87 84 81 71
81 95 97 89 67 69 70 75 78 92 100 100 100 100 100 100 100 100 100 100 99 100 100 96 89 80 75 71 70 71 84 79 92 92 93 90 76 67
78 83 84 85 78 70 77 83 83 92 93 100 100 100 100 100 100 100 100 100 99 100 99 97 94 82 71 70 66 62 75 82 78 96 100 100 98 73
99 93 91 90 94 82 71 81 91 93 90 100 100 100 100 100 100 100 100 100 100 100 99 98 98 94 92 93 81 57 53 78 79 100 100 100 98 80
86 81 84 84 83 76 75 78 80 85 88 98 99 99 99 99 100 99 99 99 99 99 99 99 99 99 94 89 82 76 59 58 82 98 100 100 86 70
84 86 89 89 90 86 78 74 78 81 81 98 99 99 99 99 99 99 99 100 99 98 97 98 97 95 99 86 73 93 89 69 56 61 88 100 90 73
95 96 97 99 97 93 88 71 65 70 85 94 96 99 99 99 99 98 99 99 99 98 95 99 98 98 92 80 74 95 100 90 77 66 55 55 71 83
99 98 97 100 98 100 100 91 80 76 97 99 96 98 98 99 99 98 98 99 99 98 98 98 98 100 95 81 73 95 100 100 99 93 85 65 48 38

GFSNE_925_rhum_102.txt.gz
RH
100 95 92 90 90 85 90 94 92 92 82 76 92 81 82 83 85 82 81 85 84 82 91 96 96 96 94 96 97 96 88 85 82 82 80 75 85 98
100 100 96 99 98 92 95 98 97 96 96 81 79 84 87 93 96 96 92 97 90 95 100 98 92 93 98 99 96 92 86 84 82 83 80 93 93 90
97 97 100 100 100 100 99 99 100 100 96 86 91 95 98 99 95 93 98 100 100 100 100 94 86 88 95 99 97 91 88 83 85 86 89 98 95 98
92 89 93 95 98 99 99 99 100 100 100 98 98 97 95 96 99 100 99 99 100 100 100 91 90 95 100 100 95 92 88 82 85 89 84 78 71 70
77 86 89 90 94 99 98 99 100 99 100 100 99 98 99 100 100 100 100 100 100 100 100 98 96 97 97 97 94 87 84 84 89 89 82 74 67 63
60 73 76 86 89 92 95 99 100 100 100 100 100 100 100 100 100 100 100 100 100 100 100 100 100 100 99 93 86 83 82 87 91 86 78 70 67 65
58 61 72 84 88 99 99 94 96 100 100 99 100 100 100 100 100 98 100 100 100 100 99 100 100 100 97 94 90 80 86 85 89 76 71 71 69 64
56 60 64 71 71 84 95 99 100 99 100 100 98 96 98 99 100 100 100 99 99 99 100 100 99 100 100 96 98 90 88 88 87 76 75 71 66 54
61 63 61 60 76 72 73 84 93 98 100 98 100 99 100 98 98 100 100 95 89 91 100 100 100 100 100 100 99 99 96 91 84 81 77 70 56 47
60 62 62 59 57 76 76 72 76 86 94 99 100 100 90 97 99 96 97 97 97 96 100 98 100 100 100 100 100 100 95 94 91 88 76 62 47 51
51 55 63 65 60 70 68 72 67 68 81 82 96 99 100 95 99 100 100 100 98 100 100 97 100 100 100 100 99 98 97 97 92 86 73 54 56 69
52 54 60 68 72 79 74 64 63 64 67 77 91 79 99 99 98 100 100 97 94 100 99 90 100 96 98 99 100 99 100 100 96 90 73 88 83 63
56 54 56 63 78 81 78 70 67 75 72 82 86 95 97 100 100 100 99 100 98 98 94 89 98 97 93 93 95 100 100 98 97 95 97 95 82 74
62 58 59 68 78 77 77 73 77 77 76 76 81 91 99 100 99 100 93 100 100 100 87 93 92 93 94 98 97 95 97 95 96 91 96 94 97 82
68 68 74 75 75 74 70 74 74 79 79 84 83 90 98 99 97 100 100 100 100 98 100 100 87 95 84 93 96 96 93 100 99 94 96 87 92 89
78 77 77 82 83 82 74 67 72 77 80 87 99 100 99 100 100 100 100 100 100 100 100 100 98 96 98 85 83 95 92 94 100 100 98 89 94 91
74 79 84 77 70 68 67 67 70 73 76 89 100 100 100 100 100 100 100 100 99 99 99 100 100 100 93 82 95 92 96 96 100 99 99 98 96 90
84 82 78 77 73 73 71 70 72 71 75 89 90 99 100 100 100 100 100 100 99 100 98 98 98 99 99 95 88 93 92 92 100 100 99 98 94 92
89 82 79 78 72 71 76 74 73 73 76 83 91 97 100 100 100 100 100 100 100 100 99 99 99 99 97 94 89 86 90 95 100 100 99 97 94 94
70 69 76 75 76 78 80 80 80 76 77 80 86 95 100 100 100 100 99 100 100 99 98 99 99 100 98 93 93 88 75 72 94 99 99 98 100 100
76 77 82 91 84 83 87 89 85 75 76 78 84 91 97 100 100 100 99 99 100 99 97 98 98 100 100 94 97 98 88 76 70 91 99 98 94 91
87 88 87 95 96 95 95 96 93 84 77 79 90 93 95 99 99 100 99 99 99 99 99 99 99 99 100 96 92 97 96 82 84 86 75 81 87 89
91 89 89 93 96 98 98 98 98 92 85 85 87 95 99 100 99 100 99 98 99 99 99 99 99 99 100 99 95 96 96 98 100 100 98 77 64 46

GFSNE_925_rhum_105.txt.gz
RH
100 100 100 100 99 98 99 96 94 93 90 77 78 76 79 74 74 77 83 77 72 72 83 85 84 81 92 100 97 99 98 98 94 86 81 79 78 84
96 97 100 99 100 98 98 98 98 92 92 73 80 80 80 85 82 78 76 79 85 92 93 93 88 88 90 100 97 97 98 97 92 82 81 80 90 95
83 88 93 94 98 99 99 100 100 98 94 83 86 87 85 86 87 89 95 99 100 98 95 97 97 98 95 100 100 99 100 95 87 83 86 85 98 100
56 66 79 87 94 94 95 99 100 99 99 97 95 97 96 97 97 97 96 97 94 92 89 93 99 100 100 99 95 100 99 94 87 85 88 88 91 87
52 59 65 72 81 87 90 94 96 98 98 100 99 100 99 98 100 100 99 98 97 96 98 100 100 100 100 97 99 99 98 92 88 81 78 87 84 78
51 53 58 69 78 91 91 93 92 95 98 100 99 100 100 100 100 99 99 99 99 100 100 100 100 100 98 96 98 97 92 90 82 78 85 88 81 73
52 50 52 60 65 82 85 91 95 98 93 97 98 100 99 99 99 98 100 100 99 100 100 100 100 100 100 100 99 96 91 83 78 83 86 84 78 74
50 53 55 54 57 68 70 74 80 91 97 95 90 91 96 99 98 99 100 100 99 98 100 100 100 100 100 100 98 92 86 82 81 81 83 76 77 74
48 53 55 50 56 55 61 68 72 72 80 87 99 91 92 95 98 100 100 98 96 91 100 99 100 100 100 100 95 89 85 80 83 84 80 78 76 73
53 53 49 48 54 59 67 68 66 68 66 73 82 88 88 90 96 100 100 98 98 99 98 98 98 100 100 100 98 92 93 83 82 83 79 75 75 70
45 44 45 52 58 67 75 74 66 59 58 60 66 74 78 73 76 97 100 100 99 99 98 100 100 100 100 100 100 100 100 94 86 86 86 81 74 66
47 46 47 50 60 68 78 74 69 66 64 72 75 76 79 85 91 85 94 100 98 100 99 100 100 97 100 100 99 100 100 99 95 90 88 83 72 61
66 59 54 53 58 68 75 78 74 72 77 76 76 76 76 80 90 97 87 96 99 99 91 98 99 99 98 98 100 100 100 100 100 99 94 84 79 67
72 68 64 61 69 75 73 72 72 76 77 76 79 79 81 82 86 98 96 94 94 100 99 96 98 97 96 99 98 100 100 100 99 99 96 95 98 68
74 73 73 73 72 72 70 70 75 81 71 76 76 77 76 95 86 74 91 99 99 97 100 100 98 96 100 98 98 99 100 100 100 99 96 96 89 82
76 78 78 75 74 75 74 74 74 69 70 76 77 78 90 96 99 96 99 98 100 100 100 100 100 100 100 98 94 99 99 98 100 100 98 97 90 81
93 100 94 82 76 75 75 71 72 72 73 80 79 82 91 92 100 98 100 100 99 99 100 100 100 100 100 98 99 99 99 100 100 100 100 99 90 86
81 92 88 84 87 87 91 89 81 84 76 74 83 79 85 90 99 98 100 100 99 100 100 99 99 100 100 100 98 100 100 100 100 100 100 99 99 88
82 84 78 74 75 77 75 72 73 72 70 77 84 90 87 90 98 98 98 100 99 99 100 98 100 99 98 98 99 100 99 99 100 100 100 96 96 91
74 73 74 76 77 82 82 84 85 88 84 77 80 85 87 88 98 98 99 99 100 100 100 99 99 100 98 94 97 99 99 98 99 99 100 96 95 80
72 77 83 82 83 89 93 96 96 92 90 82 79 87 90 95 98 99 99 99 99 100 97 98 99 100 100 99 97 98 99 99 98 99 99 99 98 99
85 86 86 86 88 93 98 97 97 95 93 89 83 79 87 98 100 99 100 100 100 100 99 98 99 100 100 100 96 96 98 98 98 98 98 90 86 97
87 93 86 84 91 93 97 96 97 95 96 90 85 85 89 94 93 97 99 99 99 100 99 99 99 99 100 99 97 97 97 98 100 100 99 84 79 64

GFSNE_925_rhum_108.txt.gz
RH
97 97 100 98 99 100 100 100 99 99 98 91 83 79 75 72 69 75 74 71 63 61 68 67 67 66 70 68 86 94 100 98 99 96 88 83 79 75
86 86 95 96 95 98 96 100 100 98 96 82 81 78 73 76 75 80 75 84 81 80 78 72 76 79 84 71 84 92 93 100 99 94 89 82 79 78
67 70 79 77 91 93 92 96 99 100 97 88 83 78 86 91 91 84 86 88 85 88 89 92 88 89 91 92 92 97 98 99 97 92 91 96 79 89
55 53 60 71 80 65 83 95 96 98 100 97 97 100 100 100 99 95 100 100 100 100 98 100 95 94 94 96 96 100 100 100 98 94 93 84 81 90
54 52 54 61 67 59 88 79 95 96 97 100 99 98 99 100 100 100 99 100 100 97 95 94 97 94 95 96 100 100 100 100 96 94 87 81 80 85
51 53 52 57 58 66 83 81 88 93 95 97 98 98 100 97 97 98 96 93 92 89 92 93 96 95 94 95 100 100 100 100 100 92 86 82 78 80
46 50 53 55 52 69 67 75 78 78 88 94 90 89 89 99 100 98 100 97 96 92 89 91 98 100 99 100 100 100 98 99 96 90 85 77 75 85
50 50 52 56 52 57 59 67 72 79 78 88 89 96 89 86 96 100 100 100 99 87 98 91 98 100 100 100 98 100 100 100 95 88 79 73 79 83
52 50 52 54 48 54 60 69 61 66 71 75 82 86 90 96 94 94 99 99 98 92 96 99 98 100 100 100 100 100 100 99 92 84 76 76 81 80
57 53 49 47 46 55 62 72 75 72 64 60 62 73 74 74 82 94 95 97 99 98 99 100 98 99 98 99 100 100 100 98 91 81 76 77 80 78
59 52 50 50 49 55 66 72 76 71 70 68 68 69 72 79 79 83 97 98 97 98 92 100 98 100 100 99 99 100 100 100 93 84 79 79 79 78
73 73 69 64 59 58 62 70 79 80 76 72 76 76 67 71 76 83 90 97 92 92 87 100 100 99 100 99 99 100 100 100 99 94 90 84 78 76
74 73 74 71 69 68 71 80 91 75 76 76 80 74 75 81 80 83 84 92 100 93 98 96 100 100 98 98 100 100 100 100 100 100 98 88 80 76
75 80 79 74 69 77 77 79 71 71 87 91 79 75 78 76 72 76 82 76 76 84 95 100 99 99 98 100 99 100 100 100 100 100 100 98 92 80
82 77 73 74 75 76 76 74 77 84 76 81 72 73 75 71 73 75 80 81 87 82 88 98 100 99 100 97 95 99 98 100 100 100 100 100 99 93
92 94 96 84 81 81 78 77 76 79 78 85 82 70 77 83 92 90 100 96 98 98 87 94 100 100 100 100 96 97 99 99 100 100 99 100 100 91
83 89 90 92 92 89 90 88 84 89 91 78 83 78 80 85 82 83 85 99 99 97 97 93 99 100 100 100 99 99 100 100 100 100 100 100 100 97
87 98 92 87 88 86 84 85 84 78 76 78 76 71 80 87 88 80 93 100 99 98 100 100 100 100 100 100 100 100 100 99 100 100 100 99 100 100
80 83 87 84 82 81 81 82 87 94 90 89 88 75 72 87 89 90 96 98 98 99 99 100 100 99 98 97 100 99 98 100 100 100 100 100 99 100
76 75 78 81 85 88 89 92 95 99 99 94 92 80 77 80 88 92 97 98 98 98 99 100 99 99 97 89 96 99 100 100 99 99 99 100 99 98
78 77 80 86 90 93 96 96 98 98 98 98 97 97 89 84 94 97 100 96 96 99 98 98 95 98 100 99 98 98 99 99 99 99 99 98 98 98
80 83 85 90 92 89 88 93 96 97 94 98 97 98 92 80 96 96 98 98 97 100 99 99 98 99 99 99 96 97 98 99 100 99 99 95 93 96
86 91 95 96 98 97 96 95 91 92 95 90 97 96 97 95 83 84 92 97 98 99 100 100 100 99 100 99 96 97 98 99 99 99 98 98 93 74

GFSNE_925_rhum_111.txt.gz
RH
82 86 98 94 91 100 97 100 98 99 98 94 94 94 99 96 97 95 88 84 78 72 68 62 70 76 75 76 83 80 82 89 98 98 99 92 93 97
78 78 87 94 95 97 92 99 100 98 98 96 92 89 82 83 90 93 91 85 84 85 76 74 72 77 79 79 77 83 76 79 75 90 100 96 88 82
58 58 61 69 84 68 83 94 95 99 97 92 93 86 99 91 86 90 92 87 83 87 83 86 84 86 89 88 88 88 83 75 89 87 100 99 90 77
56 56 55 62 73 65 77 87 90 96 99 95 94 93 94 92 99 100 100 100 99 98 98 100 99 100 100 100 100 100 95 93 98 100 100 99 88 82
44 51 55 55 61 56 83 77 84 84 87 99 97 94 96 98 94 91 98 100 100 100 100 99 100 96 95 95 95 93 90 95 99 100 100 100 91 94
38 37 51 54 56 60 67 63 86 83 82 92 95 89 85 90 95 99 98 97 98 99 94 93 85 83 86 88 91 88 88 96 100 100 100 100 96 94
52 52 55 52 49 67 60 62 70 75 85 91 93 89 92 93 93 98 100 100 96 94 94 86 86 83 89 96 88 81 86 91 100 100 100 99 97 93
60 56 56 57 55 58 63 67 73 76 77 82 93 88 88 92 92 98 96 98 99 99 100 98 89 87 98 100 98 88 96 100 100 100 98 98 96 88
59 63 60 58 53 51 54 58 70 68 74 79 80 76 94 83 86 92 95 98 95 90 91 96 94 91 88 99 100 99 99 100 100 99 100 96 92 83
63 66 67 69 67 69 61 59 69 71 68 73 73 79 81 82 82 82 86 91 94 83 84 97 93 90 86 90 96 100 100 100 100 100 100 97 85 78
68 71 74 72 72 68 68 71 71 73 71 74 76 81 79 80 73 78 85 89 81 78 79 97 94 98 95 90 86 97 100 100 100 100 100 94 82 79
78 81 76 71 70 69 72 80 95 89 82 79 75 76 79 72 66 84 85 95 81 80 85 97 93 100 100 97 89 86 99 100 100 100 100 99 91 89
80 78 81 80 74 78 80 88 97 92 98 98 91 85 82 71 69 75 73 80 92 95 82 95 97 99 100 96 94 95 100 100 100 100 100 99 94 89
82 84 82 82 77 71 72 72 71 70 85 99 93 83 82 72 68 68 68 74 73 81 79 78 98 100 100 100 98 94 98 100 100 100 100 100 98 93
85 85 80 81 83 82 85 79 76 77 81 86 87 86 81 71 67 64 85 83 67 73 79 83 84 97 100 98 98 92 97 99 100 100 100 100 99 99
97 92 87 81 84 84 80 77 80 84 93 98 98 97 88 81 75 70 67 78 85 94 75 80 83 85 100 100 100 95 89 98 100 100 100 100 100 100
84 98 98 96 94 92 90 84 80 80 84 83 94 94 84 79 83 78 81 79 90 95 94 91 82 97 100 100 100 100 98 100 100 100 100 100 100 99
84 78 80 83 89 89 86 87 86 86 84 91 96 92 90 84 76 80 86 84 97 93 97 98 100 100 100 98 100 99 100 100 99 100 100 100 100 100
76 81 81 82 84 88 93 94 96 92 92 97 100 100 98 91 86 80 87 89 96 97 97 99 100 99 98 97 99 100 100 100 100 100 100 100 98 100
78 80 83 83 84 88 92 97 98 99 99 99 100 100 98 98 95 97 96 99 98 96 98 98 100 99 98 95 94 89 88 100 100 99 100 100 100 100
82 82 84 87 90 94 96 94 94 96 98 99 91 94 97 98 97 92 96 90 94 95 94 94 92 99 99 100 99 99 97 100 100 99 99 99 99 99
85 86 89 92 96 98 100 100 100 98 96 83 91 100 94 98 100 94 97 100 99 98 97 96 100 99 99 98 95 97 99 100 100 100 100 98 92 97
93 97 97 99 99 99 100 100 99 100 96 95 94 98 98 100 97 95 94 87 96 98 97 96 99 100 99 99 98 98 98 99 99 99 99 99 99 97

GFSNE_925_rhum_117.txt.gz
RH
63 60 63 72 85 80 70 91 98 96 89 72 89 88 92 94 84 99 95 100 99 89 84 79 79 78 80 84 78 77 72 73 89 97 100 100 96 99
34 40 48 62 74 65 62 88 86 98 94 79 85 92 87 85 85 94 88 96 100 100 98 90 91 90 89 91 82 77 77 77 79 82 89 98 97 96
40 34 36 55 61 56 59 89 85 87 96 86 82 86 93 95 88 88 94 98 97 99 99 100 100 99 93 96 92 89 77 76 75 80 81 92 100 100
59 46 44 50 51 56 68 76 71 82 90 92 82 83 93 95 92 84 96 94 90 93 96 100 100 100 100 100 94 91 95 92 90 91 93 93 96 100
61 53 51 56 62 69 67 68 64 79 72 83 84 78 87 87 92 93 88 87 74 80 100 100 100 100 100 100 100 97 96 97 96 93 90 89 94 93
57 56 57 59 74 75 76 75 71 78 73 79 83 82 85 82 92 96 93 95 92 88 96 97 97 97 100 100 100 99 100 100 100 98 93 91 90 89
58 60 61 70 76 77 75 79 79 78 77 83 86 82 86 92 94 94 89 90 92 98 81 67 59 65 89 94 97 99 100 100 100 100 100 100 100 99
62 66 68 70 75 75 83 78 78 81 86 91 88 88 87 89 86 92 91 85 86 80 88 78 67 75 50 72 92 94 96 99 100 100 100 100 100 100
70 72 73 74 75 71 75 76 72 79 82 84 90 88 90 86 85 90 90 89 87 79 92 86 76 87 87 79 84 90 88 92 97 99 100 100 97 96
71 73 79 78 76 78 74 74 77 76 74 83 86 85 87 88 87 87 93 81 84 83 82 90 70 78 83 75 68 83 90 86 89 93 94 100 100 98
73 77 80 77 78 75 72 76 85 84 71 75 82 86 88 86 89 95 90 92 87 77 67 97 95 93 74 86 98 97 91 86 87 91 99 93 99 100
75 82 71 78 77 76 75 84 84 88 74 76 83 80 72 66 71 77 87 95 96 88 87 88 82 91 92 70 83 73 72 75 86 92 100 100 100 100
87 85 79 84 82 80 78 84 86 77 76 87 72 70 72 76 77 78 83 80 73 85 69 84 86 85 86 85 76 73 76 71 74 92 99 100 100 100
90 85 83 89 91 84 89 83 74 72 92 74 79 88 93 89 79 81 86 87 75 76 73 82 88 83 87 90 85 77 80 76 80 94 100 100 100 100
86 81 77 80 86 83 76 75 75 81 83 93 98 94 88 80 81 84 84 97 78 65 65 63 72 73 88 96 85 85 85 84 79 80 80 100 100 100
84 89 99 88 78 70 73 76 80 89 96 98 97 95 89 93 100 92 94 86 90 76 65 66 69 94 100 100 95 84 86 89 84 94 98 100 100 100
91 97 83 78 78 83 86 86 86 85 91 92 96 100 99 98 98 100 99 98 99 98 93 81 72 71 73 100 99 99 96 82 79 89 99 100 99 100
95 81 80 84 88 89 89 89 90 89 90 99 100 93 91 91 98 99 99 100 100 98 98 88 91 96 90 87 99 98 97 98 88 92 99 99 100 98
79 81 86 88 88 90 92 94 96 96 94 97 94 95 97 97 96 100 100 100 99 96 92 90 99 98 96 94 77 91 100 98 94 95 97 98 99 98
83 84 86 89 91 93 95 97 98 98 99 100 98 96 99 98 98 100 100 99 97 99 96 95 91 96 96 94 95 88 86 100 100 92 92 98 98 98
88 89 90 93 96 99 100 99 99 99 98 97 98 98 97 97 98 98 100 91 94 98 96 87 88 93 93 96 95 88 84 90 98 100 99 97 99 99
92 95 97 99 100 100 100 100 98 98 98 98 98 98 95 98 100 100 100 100 97 98 99 93 84 89 100 97 93 86 84 85 86 90 99 100 98 98
98 100 100 100 100 98 99 100 99 98 98 97 97 96 96 99 96 100 99 100 100 98 97 99 95 96 99 99 96 96 91 88 96 100 99 96 99 100

GFSNE_925_rhum_120.txt.gz
RH
24 31 45 56 64 65 56 66 87 92 83 71 82 73 60 82 85 85 90 81 93 97 98 100 100 100 91 85 83 86 91 92 80 83 95 93 97 95
40 32 31 40 65 64 60 64 93 92 82 68 87 82 58 62 84 84 66 96 96 88 91 98 99 99 99 97 93 91 89 96 84 73 71 88 97 96
54 46 39 42 48 49 60 71 83 89 88 78 77 65 64 68 85 72 92 80 76 77 89 99 97 98 100 100 100 96 94 91 89 80 80 80 82 96
63 50 48 49 50 62 69 70 74 68 97 92 79 80 73 69 83 92 92 90 80 68 94 100 90 97 98 100 100 100 98 92 98 90 85 88 85 84
64 56 57 56 62 72 75 78 80 81 80 89 88 83 77 73 76 86 85 84 80 52 100 93 94 89 90 98 100 100 100 100 98 95 94 90 86 86
62 58 61 61 73 78 78 76 77 83 82 86 88 85 83 79 81 86 86 86 85 73 77 45 31 50 77 81 90 100 99 100 100 100 99 97 93 93
62 60 65 67 80 83 80 84 80 82 82 93 92 75 88 88 91 92 92 90 84 69 75 78 82 57 40 60 76 93 99 100 100 100 100 100 100 98
66 68 71 71 75 84 79 84 80 80 83 87 92 93 92 95 95 97 98 93 89 74 84 82 83 92 95 88 72 64 84 99 100 100 100 100 100 100
73 74 72 76 75 74 76 80 76 81 82 84 92 94 98 91 94 100 98 97 94 88 82 82 71 83 94 88 82 94 77 92 99 97 98 100 99 99
75 74 75 77 75 80 79 75 74 76 74 80 86 83 83 84 85 92 95 98 91 76 71 89 73 96 77 54 96 100 99 98 99 100 97 93 98 100
76 73 79 85 80 79 76 78 83 86 75 83 84 86 86 81 77 85 92 98 88 86 69 98 86 81 72 57 71 84 84 78 74 91 100 94 93 98
79 78 79 83 81 77 82 94 100 91 88 91 86 83 73 60 60 77 90 99 97 92 65 76 81 85 89 66 71 60 53 50 48 50 74 98 95 95
92 88 76 81 82 81 84 99 95 79 74 80 86 74 66 66 69 66 74 91 100 97 80 86 93 93 85 83 77 72 69 65 55 50 71 92 97 100
89 87 83 86 95 91 86 78 72 73 81 83 89 89 89 90 82 81 74 80 90 100 94 84 100 89 92 90 85 70 75 77 77 75 70 87 96 99
81 85 81 83 87 90 78 74 74 75 81 99 96 96 99 90 86 88 80 83 86 84 87 76 73 73 87 98 95 92 87 80 71 92 89 89 99 100
84 88 99 94 82 72 70 63 69 77 92 92 92 94 100 99 99 98 99 100 100 84 76 79 74 80 90 100 99 92 93 95 78 75 71 71 86 99
82 98 91 79 77 76 79 82 84 84 90 92 95 99 94 84 89 89 96 99 100 97 93 78 77 79 87 95 100 95 89 91 92 91 86 85 91 99
98 91 82 80 86 87 89 88 91 92 94 97 99 98 99 99 96 93 91 100 99 99 100 92 93 94 86 74 92 100 97 93 94 94 94 87 96 98
84 80 83 86 89 91 92 96 97 96 98 100 100 100 99 97 93 93 96 97 98 100 95 90 98 100 98 94 74 71 98 99 94 93 92 91 98 93
80 85 88 90 92 95 97 99 98 99 100 100 100 100 98 98 98 98 93 95 95 97 96 88 94 91 97 93 92 84 82 87 94 98 99 91 92 90
86 91 93 96 99 100 100 100 100 100 99 98 97 98 97 99 97 98 98 93 90 96 97 98 86 92 96 98 96 89 79 75 78 92 96 100 99 99
93 96 97 100 100 100 100 100 99 99 98 99 100 100 98 97 97 99 100 99 98 98 98 97 91 90 96 99 95 91 90 86 79 83 89 97 100 99
94 97 100 100 100 100 100 100 99 98 99 98 100 100 98 98 96 98 100 100 99 97 98 97 93 97 99 100 94 95 95 93 83 84 94 95 87 94

GFSNE_925_rhum_123.txt.gz
RH
26 25 27 39 54 91 90 83 75 70 64 65 70 76 71 67 55 81 80 99 91 91 92 96 98 99 89 94 100 100 95 92 93 90 96 88 79 81
50 43 35 32 38 46 62 77 83 87 74 64 69 79 76 74 72 77 79 94 90 82 86 96 100 99 92 87 93 99 100 98 92 90 90 93 92 86
57 52 44 41 44 47 60 80 82 89 78 68 76 82 81 82 79 78 84 76 80 75 78 96 100 97 92 92 96 90 99 100 100 97 96 92 97 92
64 59 55 59 57 64 82 84 87 87 90 82 79 84 85 84 82 83 81 76 80 77 77 100 78 81 82 86 98 94 88 98 100 100 97 86 98 93
65 62 57 60 70 78 80 81 82 82 89 88 79 83 83 84 85 83 79 81 80 79 80 81 73 80 83 86 94 99 96 89 98 98 100 97 98 97
68 66 61 66 77 84 82 82 81 89 86 82 79 78 74 75 80 78 80 80 84 78 82 78 75 73 82 84 93 92 97 94 90 99 99 100 100 98
61 60 63 67 81 81 81 80 83 84 82 80 76 76 71 73 76 81 86 89 88 78 83 80 77 68 70 92 98 99 95 99 96 96 99 99 100 100
70 70 71 69 70 86 82 80 81 78 77 79 78 74 72 78 81 83 90 81 81 75 82 81 73 73 83 94 84 92 99 99 98 98 96 99 100 99
77 77 79 76 77 75 75 84 81 81 79 79 79 76 82 80 85 89 83 81 77 78 84 78 70 78 84 66 64 76 100 100 96 94 97 95 99 100
76 75 76 74 77 88 82 82 81 82 81 87 87 88 89 89 82 79 77 80 79 77 80 81 71 77 71 65 62 97 88 91 74 93 88 94 96 99
78 78 77 83 85 85 79 81 81 85 85 82 87 88 86 83 84 78 76 84 80 76 77 87 72 78 77 72 72 75 68 76 94 93 85 74 94 99
82 77 77 87 79 77 84 92 96 86 86 86 84 84 91 82 70 82 88 84 83 79 64 84 81 80 73 68 71 70 67 70 84 86 90 97 82 98
84 85 88 88 83 80 84 91 90 78 75 78 86 85 84 85 85 86 90 96 93 90 88 95 93 88 81 77 68 69 73 74 75 77 87 70 89 100
78 82 83 83 94 87 85 83 76 75 78 75 73 76 82 88 91 97 98 99 100 100 97 99 99 98 92 86 80 68 74 81 88 82 89 87 70 86
83 83 82 82 85 92 84 78 72 74 75 80 78 80 82 90 100 100 100 100 100 100 89 83 100 100 100 93 90 87 80 78 84 99 90 90 88 72
78 81 94 97 90 82 74 73 78 82 87 87 83 85 90 90 89 88 88 89 93 97 82 73 80 97 100 94 94 95 90 90 78 80 93 93 93 82
88 96 100 91 76 73 76 80 84 88 90 92 92 90 89 87 84 88 92 92 95 89 89 86 84 94 98 96 100 91 92 93 90 92 95 96 94 92
92 99 84 75 76 77 81 82 86 89 90 94 96 97 96 97 96 95 92 92 92 86 96 98 100 100 92 81 79 95 98 92 92 93 93 99 95 92
91 79 79 82 85 87 89 92 96 95 98 100 100 98 98 100 97 95 93 93 88 86 93 99 100 99 91 89 72 76 89 92 86 90 92 93 96 95
78 81 85 88 90 93 96 100 99 99 99 98 98 99 100 98 97 96 95 96 92 89 92 93 100 98 95 92 93 87 87 91 92 92 90 87 93 83
85 90 94 96 98 100 100 100 99 100 98 99 98 98 97 99 97 99 98 93 92 93 91 90 89 92 98 98 95 82 79 83 83 93 96 96 91 89
92 96 98 100 100 100 100 100 100 100 100 99 99 99 100 98 98 98 97 96 91 89 92 88 91 100 100 95 89 90 87 88 85 78 80 93 94 96
96 100 100 100 99 100 100 100 100 100 100 100 100 99 99 98 99 100 99 98 97 95 95 95 93 98 99 98 93 91 91 92 90 90 90 79 87 88

GFSNE_925_rhum_126.txt.gz
RH
61 57 51 51 56 65 66 62 57 52 41 37 48 55 59 65 66 69 65 69 86 82 80 80 79 100 100 100 100 100 100 98 100 99 100 98 96 94
56 58 53 54 56 61 66 62 61 61 60 41 48 52 64 66 65 70 68 76 70 74 78 77 90 90 81 83 85 91 100 100 97 99 100 99 99 93
60 62 57 56 57 59 67 67 66 67 63 54 55 59 65 67 69 69 67 65 62 69 74 79 83 77 75 78 82 85 92 100 100 91 97 100 99 100
59 62 58 54 57 60 64 64 64 65 67 63 63 64 68 68 69 71 68 64 67 66 77 75 80 76 76 76 80 91 90 95 100 97 93 94 99 100
61 61 58 58 56 58 63 66 70 69 70 69 65 64 65 67 67 69 66 65 66 66 67 71 75 75 74 73 80 93 97 99 94 100 97 96 98 98
64 64 62 61 62 65 66 66 66 68 67 67 65 64 62 62 62 62 62 63 69 71 69 69 70 68 68 70 86 89 82 100 98 99 99 99 98 97
61 63 63 68 67 80 72 70 68 66 66 68 63 62 61 58 60 63 65 70 78 68 67 63 62 62 61 66 76 70 70 94 100 100 97 99 98 92
64 63 66 76 74 78 84 81 80 75 69 66 64 60 58 59 60 63 73 82 74 60 61 64 61 62 62 66 67 69 76 96 95 98 91 97 98 97
71 70 67 63 72 71 73 77 75 77 78 76 71 66 64 65 71 81 81 77 66 63 64 67 62 58 62 60 67 71 78 84 73 77 87 90 94 96
74 73 69 67 67 76 77 73 71 69 68 71 72 77 75 77 92 89 83 73 66 61 60 69 61 64 61 63 64 70 77 70 74 73 82 86 87 96
70 70 70 71 73 78 78 75 72 71 71 78 81 78 79 81 78 83 78 71 68 60 60 66 63 65 69 71 62 65 70 68 70 75 74 80 92 95
68 68 72 80 84 81 79 79 80 78 78 72 68 63 66 70 75 76 73 76 75 75 60 67 74 76 73 62 63 66 64 66 68 68 79 86 92 99
71 70 66 73 77 79 83 92 88 84 75 68 64 63 60 61 66 70 75 81 87 84 78 81 86 87 85 83 69 68 67 66 71 76 72 81 100 90
72 69 69 74 80 88 82 80 81 78 69 62 60 59 62 68 73 77 83 89 95 97 99 100 99 96 92 88 79 68 70 75 77 82 88 92 80 91
76 77 80 76 82 82 81 78 76 66 61 63 64 67 71 77 83 89 87 88 94 90 94 92 97 97 97 92 86 81 74 79 82 80 84 87 90 93
78 78 81 88 88 87 77 64 65 68 71 74 76 75 79 88 92 90 92 89 90 85 83 82 91 95 96 93 91 88 84 85 80 87 90 92 92 94
86 92 85 87 78 65 61 64 68 72 76 78 81 83 82 82 86 90 92 92 94 89 85 80 83 89 94 100 97 92 83 80 85 86 92 94 91 91
82 83 82 74 66 63 66 69 73 78 80 83 88 92 91 92 93 90 91 93 92 85 83 81 84 90 87 81 92 94 85 81 80 80 84 82 83 82
84 80 74 68 69 74 77 80 82 84 89 94 94 94 93 93 90 89 89 91 90 88 88 84 91 92 92 88 67 68 82 84 83 85 85 86 88 87
77 71 68 73 76 80 83 86 89 93 93 92 93 93 94 95 94 92 91 92 91 88 87 84 87 90 94 90 92 85 81 87 88 87 88 89 89 88
71 70 76 80 84 88 91 97 99 98 96 97 97 97 97 97 94 91 93 88 88 92 89 84 81 82 92 96 92 80 76 78 85 92 95 95 91 87
73 77 82 88 91 95 98 100 100 98 95 95 96 97 97 97 97 95 94 94 90 91 90 88 89 93 95 95 88 84 84 82 84 90 94 98 96 90
82 86 90 95 99 100 100 100 100 99 97 98 98 98 99 98 96 96 95 94 95 94 92 92 89 88 91 89 86 86 82 83 84 86 86 87 83 80

GFSNE_925_rhum_129.txt.gz
RH
58 58 51 51 54 58 62 58 55 56 51 34 39 47 51 57 62 67 68 68 74 71 74 79 80 83 83 78 78 78 80 84 94 100 100 100 100 100
51 58 54 54 53 59 62 62 59 59 64 46 52 50 55 61 60 66 68 71 66 64 70 76 81 83 82 78 78 77 82 87 85 89 100 100 100 100
54 57 60 54 54 56 61 66 64 64 67 62 58 60 63 65 66 66 67 63 60 63 69 74 77 81 81 79 77 77 86 89 89 88 86 99 100 100
51 54 58 49 54 54 59 60 62 62 64 67 67 67 66 64 64 68 67 64 61 62 68 70 70 76 79 76 75 77 89 87 88 100 94 90 98 100
52 53 54 54 53 51 55 61 63 67 68 71 70 67 65 63 63 63 62 61 62 64 68 67 69 72 68 70 70 76 87 75 76 87 95 98 100 100
55 58 58 57 56 58 62 63 61 64 66 66 68 71 67 63 60 59 62 63 67 70 71 68 67 62 63 64 65 72 78 74 76 80 91 99 96 92
55 56 58 61 64 69 74 73 70 69 68 71 70 68 66 60 60 61 64 70 69 71 66 63 61 62 63 60 63 65 72 76 80 87 80 82 84 86
59 57 58 62 72 73 73 82 82 81 77 75 74 71 65 62 62 66 75 75 81 69 64 64 63 65 64 62 59 64 70 73 79 76 76 75 78 82
61 64 67 60 60 67 68 71 74 73 72 76 80 76 72 73 73 76 80 84 83 75 70 68 64 65 63 63 63 66 67 71 77 75 73 76 76 77
62 68 69 66 64 65 71 76 75 73 73 70 72 76 79 80 85 90 94 98 88 74 67 69 64 65 69 67 63 66 70 69 72 71 71 72 72 79
64 66 66 66 66 72 77 79 77 76 74 72 78 78 74 71 71 73 83 83 81 74 68 68 68 71 72 71 70 61 66 69 65 68 69 69 76 79
62 64 66 69 74 78 84 85 87 85 80 84 79 74 65 63 66 65 70 79 82 85 70 71 86 83 81 67 65 62 67 68 67 66 70 71 76 83
64 66 67 68 69 75 74 83 90 91 93 92 73 67 61 60 59 64 70 76 84 88 84 87 96 92 89 89 78 77 77 73 71 74 78 81 84 77
72 72 70 69 74 76 82 87 83 85 82 74 67 61 60 64 68 74 79 85 84 87 86 86 97 97 94 90 84 75 77 76 76 78 80 83 84 86
83 78 76 80 80 78 78 77 85 83 72 64 64 67 70 75 79 79 81 82 88 89 93 96 95 95 97 95 91 87 81 84 86 75 81 87 88 89
84 83 80 80 80 83 79 75 62 62 66 71 77 78 78 79 85 91 95 92 93 94 87 79 78 85 96 97 98 93 86 90 87 87 79 88 87 90
81 84 96 90 80 84 76 62 62 66 72 75 82 86 86 89 95 96 96 92 94 91 86 84 83 79 86 94 96 90 88 89 87 84 84 84 80 84
84 86 84 81 82 76 65 65 69 75 76 80 87 90 93 96 94 93 98 99 96 91 90 87 87 94 86 84 82 86 90 94 91 88 85 87 86 84
88 84 83 81 76 69 71 77 80 79 82 89 92 91 94 95 87 92 94 95 94 92 90 89 93 95 93 91 70 66 68 83 90 85 84 86 88 89
84 82 80 74 71 74 78 81 85 87 92 92 93 91 96 99 98 96 94 95 95 93 89 88 91 95 95 93 94 87 84 80 87 92 92 87 90 87
76 74 72 72 76 81 84 88 93 96 98 98 96 95 93 97 97 97 96 86 88 95 93 88 81 78 89 96 94 81 76 74 79 87 92 96 92 88
78 73 73 77 84 86 92 95 96 96 96 96 95 95 96 98 98 98 97 96 94 94 94 92 91 91 95 96 90 88 79 78 80 84 86 90 97 94
77 76 81 85 89 92 95 98 98 96 94 96 99 99 100 99 99 99 99 98 98 97 96 95 94 93 95 94 87 88 87 84 82 85 84 84 86 87

GFSNE_925_rhum_132.txt.gz
RH
55 56 54 52 53 54 59 63 66 79 72 46 49 55 54 56 56 64 65 68 73 71 70 74 78 83 83 84 82 79 79 81 84 85 84 83 87 100
52 53 57 55 52 56 58 63 63 67 84 59 62 62 61 60 66 65 67 68 66 67 68 72 76 79 80 82 81 80 80 82 84 84 83 86 83 85
49 53 56 58 54 54 57 61 66 66 78 71 68 64 67 68 65 65 66 68 62 64 67 72 74 75 79 80 78 77 78 82 84 77 81 84 96 94
47 51 54 56 51 53 54 59 61 62 65 76 72 72 70 67 65 63 62 61 63 61 70 76 72 78 73 74 71 73 73 82 82 78 79 78 93 94
49 52 53 54 55 54 53 56 61 62 66 69 74 70 69 62 68 62 61 61 58 68 69 64 74 72 72 66 68 69 71 78 81 79 80 80 80 82
49 52 56 58 58 58 58 62 66 66 70 69 69 76 74 71 64 64 62 62 71 69 58 68 70 70 65 67 67 67 69 71 76 78 80 82 79 79
56 58 55 57 58 61 68 70 76 76 78 76 81 80 81 74 72 68 74 76 73 66 72 69 61 64 64 66 64 66 65 71 73 74 78 79 78 78
56 58 59 58 60 69 76 77 77 82 83 84 84 83 75 72 71 75 78 78 83 76 80 80 75 71 68 64 66 69 71 72 68 72 76 77 76 75
54 59 61 63 66 61 63 71 71 75 76 77 84 93 87 80 76 76 81 91 92 89 92 88 76 72 67 67 66 76 72 66 77 73 74 71 72 74
56 58 61 64 68 68 66 67 70 75 73 71 71 72 72 76 83 89 97 100 99 91 82 83 74 75 71 71 73 73 68 74 72 74 68 70 71 72
50 56 62 65 66 70 70 74 81 82 78 77 77 80 83 78 74 73 72 80 83 79 77 79 80 82 79 77 64 64 74 80 71 70 70 70 69 73
54 57 63 67 68 74 76 76 87 87 81 82 83 86 85 74 71 68 62 69 80 83 76 82 87 97 79 69 72 69 65 77 75 75 70 70 74 74
56 60 63 67 70 72 73 77 79 81 95 99 94 88 72 69 63 60 61 69 74 86 84 92 90 94 94 88 80 77 78 78 77 74 83 78 79 78
63 66 70 74 74 73 76 79 84 88 98 95 89 80 70 62 62 67 74 78 81 80 75 75 91 97 97 92 86 76 79 88 78 81 73 89 76 80
76 79 83 82 79 81 82 78 75 91 97 89 75 68 68 72 74 74 72 73 80 86 83 87 94 100 99 95 92 90 83 87 88 75 74 80 88 85
80 85 83 84 83 82 84 76 73 73 66 63 67 72 76 74 79 80 85 92 100 95 84 75 79 85 95 97 100 93 89 91 86 86 88 92 95 91
73 78 83 86 93 92 84 82 79 68 64 67 70 84 86 84 94 93 96 98 99 95 93 91 86 86 86 88 94 89 82 84 88 90 98 95 96 91
92 94 89 93 90 86 86 80 68 69 73 76 81 92 94 96 97 95 98 100 98 93 92 91 91 93 92 90 93 94 90 93 92 89 97 98 88 80
99 91 91 92 89 86 80 72 71 76 78 88 93 95 95 99 94 96 96 96 96 95 95 96 97 100 94 90 70 70 74 80 90 94 86 84 90 90
98 91 90 88 88 79 72 74 78 81 86 92 92 94 97 100 98 98 97 96 96 94 93 93 96 98 95 90 89 86 85 87 89 89 88 91 90 87
94 87 83 77 75 71 73 79 81 90 91 94 97 99 99 100 97 98 100 93 90 95 93 90 87 88 96 98 94 81 77 78 82 88 91 90 92 88
97 88 82 76 72 74 80 83 87 93 91 95 96 100 100 99 98 98 98 97 95 94 94 93 94 96 98 97 90 85 84 83 84 85 86 88 96 93
86 80 79 74 75 84 86 88 89 92 94 96 96 100 98 98 99 99 99 98 98 96 95 95 94 98 96 96 94 93 89 86 84 87 87 88 88 89

GFSNE_925_rhum_135.txt.gz
RH
49 51 50 51 52 51 55 60 71 82 80 54 53 57 56 50 58 64 60 68 72 71 72 74 76 80 80 81 82 81 81 80 81 82 82 82 83 83
44 50 51 52 51 50 56 57 64 73 87 66 64 59 59 59 67 65 64 61 61 72 70 72 80 77 78 80 81 79 80 80 80 82 80 78 78 79
37 46 50 53 53 53 49 55 59 66 83 72 67 66 65 65 68 59 62 62 61 64 65 76 76 72 82 79 78 73 76 77 78 82 81 80 80 76
35 44 50 53 55 54 52 54 56 59 66 76 72 73 70 65 67 69 62 64 63 60 74 75 66 77 78 77 75 71 75 74 76 80 81 81 81 80
32 42 48 52 54 55 55 54 57 60 67 74 80 76 71 66 74 67 65 63 65 69 71 68 75 78 77 74 67 73 72 73 74 76 78 79 80 81
31 42 49 53 55 56 58 58 59 64 66 74 76 76 75 73 74 70 72 73 72 66 59 66 77 72 69 70 73 70 73 73 72 74 75 76 77 79
34 39 53 57 56 56 58 61 67 72 78 80 85 83 85 80 77 73 74 76 73 70 71 73 70 75 69 65 67 70 72 73 77 78 71 71 75 78
37 39 51 59 58 68 70 73 82 83 82 86 86 89 89 86 88 83 80 82 82 74 83 91 91 85 71 69 70 71 72 80 80 71 79 78 77 74
35 36 46 57 60 61 63 69 70 73 76 77 81 84 87 76 77 81 86 87 91 92 97 94 86 80 69 71 73 75 75 75 73 78 80 82 77 69
46 43 48 54 61 62 65 67 66 67 68 74 76 76 76 76 81 90 97 98 98 95 84 90 75 79 79 73 64 76 76 75 77 80 77 74 72 73
55 52 51 52 57 66 74 72 71 73 77 83 81 81 81 82 82 86 83 79 84 73 69 78 87 84 82 76 64 64 78 81 71 72 76 76 74 72
98 60 49 62 63 74 74 73 75 78 76 80 76 76 83 88 86 73 70 77 74 80 73 82 82 94 87 68 71 67 68 70 78 78 79 77 74 78
92 62 48 48 69 70 72 74 76 78 80 89 97 100 92 84 78 67 66 63 73 82 77 88 88 92 92 89 84 82 80 76 74 75 79 81 80 79
76 67 56 55 73 75 77 78 77 78 96 99 100 98 92 78 66 68 72 76 76 77 74 76 92 93 97 92 88 80 80 83 85 83 79 78 81 79
75 75 76 78 81 82 81 83 84 79 83 96 100 94 66 64 72 75 73 74 76 74 74 76 86 90 100 97 92 91 85 85 88 91 89 80 82 87
70 76 81 88 89 85 84 85 86 80 81 81 81 67 70 76 74 80 86 86 97 97 86 82 85 90 100 100 100 96 91 90 86 90 90 88 93 96
56 70 78 79 80 87 89 82 81 79 81 81 72 73 79 82 88 87 92 95 100 97 94 91 82 85 88 91 100 94 92 91 90 91 92 96 94 92
75 83 89 93 99 98 97 91 89 84 76 71 74 81 84 92 94 91 95 100 99 93 95 96 96 97 96 94 97 100 97 97 94 94 94 96 90 86
81 87 100 100 98 97 95 92 90 81 71 78 82 88 92 97 94 98 96 98 96 96 95 96 100 100 94 91 72 72 78 80 85 88 90 92 91 89
91 98 99 100 98 97 94 90 81 73 81 76 90 86 88 98 100 99 98 97 97 94 94 95 98 99 96 90 88 86 82 87 94 94 90 91 91 89
91 96 96 98 97 89 86 79 72 81 83 87 93 96 95 96 98 100 99 91 90 96 94 90 87 87 94 98 96 87 80 79 86 97 95 96 91 88
95 97 97 97 96 83 77 73 80 82 85 88 89 92 93 98 100 99 98 97 95 95 94 94 94 98 99 97 91 88 86 83 82 86 90 96 97 92
97 97 96 97 83 79 74 79 85 85 90 90 93 95 97 100 100 99 100 99 98 96 96 95 95 97 98 97 93 92 90 88 86 87 86 87 95 100

GFSNE_925_rhum_138.txt.gz
RH
39 44 47 46 48 50 51 59 67 74 80 54 60 62 57 50 53 64 61 63 71 73 75 74 77 83 78 80 79 80 80 81 81 81 82 82 82 82
39 42 46 48 50 50 48 56 62 70 87 66 62 55 54 60 56 65 59 62 62 71 72 72 84 78 76 83 80 79 76 78 78 79 80 81 82 81
33 38 41 46 52 53 53 52 56 65 86 72 69 63 65 68 63 60 68 60 64 64 69 77 78 74 80 83 81 79 74 78 78 78 79 80 81 81
29 34 36 42 50 53 54 52 54 56 68 77 70 70 73 71 64 60 69 65 65 65 77 79 75 74 81 82 79 75 75 78 76 77 78 78 79 80
28 31 31 41 49 52 53 55 56 56 63 72 80 79 76 72 61 65 66 65 68 69 65 71 77 80 82 77 76 77 78 76 77 77 76 77 78 78
29 30 31 38 47 51 54 56 57 59 63 70 72 73 77 72 74 76 77 75 72 66 64 68 78 78 80 82 79 79 77 79 77 79 80 82 77 74
32 31 31 36 47 55 57 56 59 63 68 76 86 89 90 82 82 84 86 78 77 69 70 71 78 74 65 62 65 66 82 77 79 83 82 77 79 78
35 34 34 38 47 62 74 76 76 76 79 88 89 92 89 87 89 86 84 90 91 76 80 92 90 85 65 61 66 79 78 80 80 80 78 80 81 83
38 38 38 37 39 51 58 67 70 72 80 80 82 84 85 80 75 78 83 89 92 91 94 94 89 80 64 65 58 77 80 81 82 80 79 80 78 78
44 44 47 54 42 48 61 65 63 62 65 66 68 69 72 77 80 82 96 99 100 92 84 96 71 71 71 70 58 76 87 82 80 83 76 75 77 78
47 49 75 57 92 55 74 75 73 71 70 70 80 87 89 84 87 98 99 95 88 80 76 70 79 82 79 70 54 57 79 81 73 76 80 81 80 80
55 53 56 78 95 75 72 75 78 76 73 73 75 78 78 77 87 96 96 89 88 81 67 76 75 83 92 77 71 62 67 64 79 82 82 78 79 81
58 77 55 94 91 73 70 78 78 76 77 86 87 87 91 88 92 86 82 74 82 79 65 82 89 90 92 90 83 82 82 81 73 75 77 82 83 84
68 72 70 98 82 71 69 74 77 80 86 90 96 100 100 93 84 69 66 70 74 76 75 78 87 88 94 92 86 83 84 85 86 85 79 80 87 86
78 84 98 75 82 75 74 78 79 89 99 98 88 91 94 85 74 68 73 74 76 77 79 80 83 83 97 99 94 87 89 88 88 89 86 82 82 90
95 98 83 86 87 84 89 89 88 94 97 95 94 93 84 80 72 74 82 82 90 95 85 82 84 90 100 100 99 97 93 94 86 89 90 94 94 94
71 74 70 74 82 85 90 87 83 97 98 87 88 88 87 78 82 87 84 88 98 98 97 92 88 92 94 98 100 95 93 95 94 95 97 98 96 95
64 69 76 82 81 81 86 94 97 98 95 89 85 76 76 80 86 90 87 95 100 98 96 93 91 98 99 94 100 100 99 98 97 98 98 100 93 88
72 92 90 87 92 95 99 99 98 96 88 90 80 75 81 90 92 97 96 97 98 97 97 92 97 99 95 91 72 71 79 84 88 90 90 92 92 88
81 93 98 96 99 99 100 98 97 96 92 83 76 83 80 94 98 99 100 100 98 96 97 94 97 100 96 89 89 84 80 84 88 93 94 91 92 90
94 96 99 98 98 97 97 97 96 92 85 75 85 89 87 97 98 97 98 92 93 97 95 93 85 87 95 99 95 88 83 77 87 96 95 97 92 88
100 99 100 99 98 98 97 97 91 81 77 88 90 96 93 94 97 98 100 98 97 97 96 96 93 98 100 97 90 87 86 84 84 87 90 95 96 92
100 99 99 98 97 97 97 96 84 76 81 89 86 88 90 96 96 98 99 99 98 97 98 96 95 96 97 96 92 91 89 88 87 87 86 86 91 96